Index of /watch_images/5239

[ICO]NameLast modifiedSizeDescription

[PARENTDIR]Parent Directory  -  
[IMG]52385004-driver-s-hands-on-a-steering-wheel-of-a-car-and-night-sceneft160_medium.jpg2017-02-15 22:44 193K 
[IMG]52385026-memorial-general-brocartft160_medium.jpg2017-02-15 22:43 151K 
[IMG]52385030-solarpark-bei-homberg-effze-in-hessen-ft160_medium.jpg2017-02-15 22:48 141K 
[IMG]52385045-portable-ventilatorft160_medium.jpg2017-02-15 22:47 203K 
[IMG]52385056-spass-am-tretrollerft160_medium.jpg2017-02-15 22:49 172K 
[IMG]52385057-detail-de-porter-parisienneft160_medium.jpg2017-02-15 22:48 172K 
[IMG]52385062-beautiful-young-woman-with-cameraft160_medium.jpg2017-02-15 22:48 156K 
[IMG]52385072-attractive-woman-getting-spa-treatmentft160_medium.jpg2017-02-15 22:49 151K 
[IMG]52385075-tegernsee-bei-rottach-egernft160_medium.jpg2017-02-15 22:45 169K 
[IMG]52385085-place-du-general-brocart-a-parisft160_medium.jpg2017-02-15 22:44 150K 
[IMG]52385091-power-towerft160_medium.jpg2017-02-15 22:44 184K 
[IMG]52385100-trailer-coupling-lockft160_medium.jpg2017-02-15 22:49 146K 
[IMG]52385106-blondine-mit-sombreroft160_medium.jpg2017-02-15 22:45 132K 
[IMG]52385118-huette-am-tegernseeft160_medium.jpg2017-02-15 22:46 166K 
[IMG]52385121-blondine-mit-sonnencapft160_medium.jpg2017-02-15 22:46 136K 
[IMG]52385125-venetian-costume-attends-carnival-of-venice-ft160_medium.jpg2017-02-15 22:44 212K 
[IMG]52385126-maedchen-am-tretrollerft160_medium.jpg2017-02-15 22:48 201K 
[IMG]52385127-blonde-model-with-fashion-make-up-and-violet-manicureft160_medium.jpg2017-02-15 22:45 168K 
[IMG]52385129-blondine-mit-sonnencapft160_medium.jpg2017-02-15 22:47 127K 
[IMG]52385137-plaque-de-l-ecole-du-travail-a-parisft160_medium.jpg2017-02-15 22:49 189K 
[IMG]52385138-portrait-of-a-smiling-young-woman-pointing-upft160_medium.jpg2017-02-15 22:45 153K 
[IMG]52385147-the-night-viewft160_medium.jpg2017-02-15 22:44 173K 
[IMG]52385151-tourteauft160_medium.jpg2017-02-15 22:48 152K 
[IMG]52385155-famous-building-of-parliament-at-night-ft160_medium.jpg2017-02-15 22:46 135K 
[IMG]52385161-leaning-tower-of-pisa-italyft160_medium.jpg2017-02-15 22:45 150K 
[IMG]52385165ft160_medium.jpg2017-02-15 22:48 184K 
[IMG]52385173-catch-canft160_medium.jpg2017-02-15 22:45 148K 
[IMG]52385182-solarpark-bei-homberg-effze-in-hessenft160_medium.jpg2017-02-15 22:45 159K 
[IMG]52385193-architect-looking-comparing-housing-projectft160_medium.jpg2017-02-15 22:47 228K 
[IMG]52385194-rainbow-lorikeet-trichoglossus-haematodusft160_medium.jpg2017-02-15 22:43 143K 
[IMG]52385195-tourteauft160_medium.jpg2017-02-15 22:47 146K 
[IMG]52385199-cageotft160_medium.jpg2017-02-15 22:43 197K 
[IMG]52385200-detail-d-une-enseigne-commerciale-ancienne-a-parisft160_medium.jpg2017-02-15 22:43 197K 
[IMG]52385205-autofahrerin-im-autoft160_medium.jpg2017-02-15 22:46 167K 
[IMG]52385208-communications-tower-in-the-sky-background-ft160_medium.jpg2017-02-15 22:43 155K 
[IMG]52385209-detail-d-une-enseigne-commerciale-ancienne-a-parisft160_medium.jpg2017-02-15 22:44 190K 
[IMG]52385218-detail-d-une-enseigne-commerciale-ancienne-a-parisft160_medium.jpg2017-02-15 22:46 197K 
[IMG]52385227-neuft160_medium.jpg2017-02-15 22:43 175K 
[IMG]52385230-detail-d-une-enseigne-commerciale-ancienne-a-parisft160_medium.jpg2017-02-15 22:49 192K 
[IMG]52385240-contemporary-classic-living-room-black-leather-sofa-wood-floorft160_medium.jpg2017-02-15 22:48 135K 
[IMG]52385243-typing-on-smartphoneft160_medium.jpg2017-02-15 22:47 145K 
[IMG]52385246-tourteauft160_medium.jpg2017-02-15 22:45 150K 
[IMG]52385260-blue-vision-in-labyrinthft160_medium.jpg2017-02-15 22:46 199K 
[IMG]52385262-strategy-execution-success-in-arrowsft160_medium.jpg2017-02-15 22:43 183K 
[IMG]52385275-moving-car-with-blur-lightft160_medium.jpg2017-02-15 22:46 178K 
[IMG]52385279-tourteauft160_medium.jpg2017-02-15 22:44 143K 
[IMG]52385305-big-summer-sale-in-sun-labelft160_medium.jpg2017-02-15 22:46 181K 
[IMG]52385313-explorer-boyft160_medium.jpg2017-02-15 22:43 156K 
[IMG]52385341-tourteauft160_medium.jpg2017-02-15 22:45 148K 
[IMG]52385347-beautiful-business-woman-with-headset-call-centerft160_medium.jpg2017-02-15 22:47 166K 
[IMG]52385359-wooden-signft160_medium.jpg2017-02-15 22:49 135K 
[IMG]52385372-solarpark-bei-homberg-effze-in-hessen-ft160_medium.jpg2017-02-15 22:47 172K 
[IMG]52385387-berlin-bundestag-congress-germany-reichstagft160_medium.jpg2017-02-15 22:49 199K 
[IMG]52385389-typing-on-smartphoneft160_medium.jpg2017-02-15 22:44 150K 
[IMG]52385396-pressure-pumpft160_medium.jpg2017-02-15 22:48 152K 
[IMG]52385399-heart-with-arms-and-legs-on-the-motorbikeft160_medium.jpg2017-02-15 22:46 152K 
[IMG]52385401-beautiful-business-woman-with-headset-call-centerft160_medium.jpg2017-02-15 22:43 151K 
[IMG]52385404-beetle-on-the-sheetft160_medium.jpg2017-02-15 22:47 145K 
[IMG]52385425-a-young-woman-training-isolated-on-white-backgroundft160_medium.jpg2017-02-15 22:43 130K 
[IMG]52385430-wedding-bride-in-white-dressft160_medium.jpg2017-02-15 22:48 166K 
[IMG]52385440-heart-with-arms-and-legs-on-skateboardft160_medium.jpg2017-02-15 22:45 140K 
[IMG]52385458-solarpark-bei-homberg-effze-in-hessen-ft160_medium.jpg2017-02-15 22:47 195K 
[IMG]52385469-tourteauft160_medium.jpg2017-02-15 22:45 147K 
[IMG]52385475-lilieft160_medium.jpg2017-02-15 22:44 129K 
[IMG]52385478-woman-with-headset-showing-ok-isolated-on-white-backgroundft160_medium.jpg2017-02-15 22:46 157K 
[IMG]52385486-portrait-of-young-woman-on-dark-backroundft160_medium.jpg2017-02-15 22:46 111K 
[IMG]52385489-a-portrait-of-beautiful-young-woman-with-a-green-appleft160_medium.jpg2017-02-15 22:43 120K 
[IMG]52385504-vintage-projectorft160_medium.jpg2017-02-15 22:48 172K 
[IMG]52385506-the-flag-of-assitant-referee-ft160_medium.jpg2017-02-15 22:43 125K 
[IMG]52385511-gold-egg-isolated-against-a-white-backgroundft160_medium.jpg2017-02-15 22:46 129K 
[IMG]52385514-ruins-of-ancient-town-on-cyprusft160_medium.jpg2017-02-15 22:43 174K 
[IMG]52385520-online-training-in-blue-glass-cubesft160_medium.jpg2017-02-15 22:48 180K 
[IMG]52385523-beetle-sits-among-dew-ft160_medium.jpg2017-02-15 22:49 143K 
[IMG]52385531-vintage-projectorft160_medium.jpg2017-02-15 22:45 171K 
[IMG]52385532-bergstedter-kirche-hamburgft160_medium.jpg2017-02-15 22:43 158K 
[IMG]52385538-forest-fly-macroft160_medium.jpg2017-02-15 22:46 141K 
[IMG]52385555-card-shredderft160_medium.jpg2017-02-15 22:48 151K 
[IMG]52385565-bride-and-groomft160_medium.jpg2017-02-15 22:45 137K 
[IMG]52385568-solarpark-bei-homberg-effze-in-hessen-ft160_medium.jpg2017-02-15 22:45 178K 
[IMG]52385574-peperoni-in-knoblauchft160_medium.jpg2017-02-15 22:48 169K 
[IMG]52385580-natural-gravel-backgroundft160_medium.jpg2017-02-15 22:43 221K 
[IMG]52385590-young-pet-bee-nectarft160_medium.jpg2017-02-15 22:47 140K 
[IMG]52385592-model-of-dinosaurft160_medium.jpg2017-02-15 22:49 222K 
[IMG]52385600-leaning-tower-of-pisa-italyft160_medium.jpg2017-02-15 22:47 168K 
[IMG]52385616-muffin-kuchen-suessigkeiten-cupcakeft160_medium.jpg2017-02-15 22:47 175K 
[IMG]52385619-close-up-of-woman-lips-with-multicolored-pearlsft160_medium.jpg2017-02-15 22:45 150K 
[IMG]52385622-the-set-of-icons-pollutionft160_medium.jpg2017-02-15 22:43 203K 
[IMG]52385628-seamless-cartoon-goose-diversft160_medium.jpg2017-02-15 22:46 248K 
[IMG]52385630-leaning-tower-of-pisa-italyft160_medium.jpg2017-02-15 22:45 178K 
[IMG]52385642-champignons-dans-la-foretft160_medium.jpg2017-02-15 22:49 194K 
[IMG]52385650-dry-and-barren-landft160_medium.jpg2017-02-15 22:43 258K 
[IMG]52385651-dry-and-barren-landft160_medium.jpg2017-02-15 22:42 227K 
[IMG]52385652-business-frauft160_medium.jpg2017-02-15 22:49 146K 
[IMG]52385655-dry-and-barren-landft160_medium.jpg2017-02-15 22:47 226K 
[IMG]52385657-dry-and-barren-landft160_medium.jpg2017-02-15 22:43 237K 
[IMG]52385659-dry-and-barren-landft160_medium.jpg2017-02-15 22:45 233K 
[IMG]52385665-mot-salon-lettre-noir-sur-fond-jauneft160_medium.jpg2017-02-15 22:43 139K 
[IMG]52385667-tuscany-val-d-orciaft160_medium.jpg2017-02-15 22:49 132K 
[IMG]52385672-fruehlingft160_medium.jpg2017-02-15 22:43 156K 
[IMG]52385675-venetian-costume-attends-carnival-of-venice-ft160_medium.jpg2017-02-15 22:45 180K 
[IMG]52385676-business-frauft160_medium.jpg2017-02-15 22:47 125K 
[IMG]52385678-ants-in-an-ant-hill-run-ft160_medium.jpg2017-02-15 22:42 192K 
[IMG]52385689-farmer-in-fieldft160_medium.jpg2017-02-15 22:43 133K 
[IMG]52385693-hausdach-mit-schornsteinenft160_medium.jpg2017-02-15 22:44 186K 
[IMG]52385696-young-asian-boy-eats-a-piece-of-biscuitft160_medium.jpg2017-02-15 22:48 147K 
[IMG]52385707-business-frauft160_medium.jpg2017-02-15 22:48 155K 
[IMG]52385723-businessman-showing-playing-cards-ft160_medium.jpg2017-02-15 22:49 139K 
[IMG]52385727-peperoni-in-knoblauch-eingelegtft160_medium.jpg2017-02-15 22:47 182K 
[IMG]52385744-huebsche-blondine-mit-jeansjackeft160_medium.jpg2017-02-15 22:47 134K 
[IMG]52385747-business-frauft160_medium.jpg2017-02-15 22:45 129K 
[IMG]52385758-abstract-geometrical-patternft160_medium.jpg2017-02-15 22:45 231K 
[IMG]52385761-businessman-showing-playing-cards-ft160_medium.jpg2017-02-15 22:43 122K 
[IMG]52385769-beauty-portraitft160_medium.jpg2017-02-15 22:47 139K 
[IMG]52385771-ants-in-an-ant-hill-run-ft160_medium.jpg2017-02-15 22:43 199K 
[IMG]52385780-scuba-diving-equipmentft160_medium.jpg2017-02-15 22:45 159K 
[IMG]52385781-vitrine-homme-classiqueft160_medium.jpg2017-02-15 22:47 129K 
[IMG]52385784-objectif-sur-un-fond-rougeft160_medium.jpg2017-02-15 22:46 149K 
[IMG]52385785-venetian-costume-attends-carnival-of-venice-ft160_medium.jpg2017-02-15 22:49 178K 
[IMG]52385788-businessman-showing-playing-cards-ft160_medium.jpg2017-02-15 22:46 136K 
[IMG]52385791-seamless-cartoon-toy-animalsft160_medium.jpg2017-02-15 22:43 234K 
[IMG]52385792-eingelegte-peperonift160_medium.jpg2017-02-15 22:44 181K 
[IMG]52385798-beauty-portraitft160_medium.jpg2017-02-15 22:48 149K 
[IMG]52385811-needle-thread-and-buttonsft160_medium.jpg2017-02-15 22:44 111K 
[IMG]52385841-businessman-showing-playing-cards-ft160_medium.jpg2017-02-15 22:43 140K 
[IMG]52385844-happy-model-with-hat-in-the-water-tanning-with-bikinift160_medium.jpg2017-02-15 22:43 171K 
[IMG]52385845-beauty-portraitft160_medium.jpg2017-02-15 22:43 138K 
[IMG]52385856-happy-woman-laying-in-the-sea-smilingft160_medium.jpg2017-02-15 22:48 163K 
[IMG]52385873-seated-buddha-imageft160_medium.jpg2017-02-15 22:46 140K 
[IMG]52385880-eingelegte-peperonift160_medium.jpg2017-02-15 22:46 164K 
[IMG]52385890-hausdach-mit-kaminft160_medium.jpg2017-02-15 22:49 155K 
[IMG]52385891-solarpark-bei-homberg-effze-in-hessen-ft160_medium.jpg2017-02-15 22:46 176K 
[IMG]52385892-teddyft160_medium.jpg2017-02-15 22:45 188K 
[IMG]52385899-venetian-costume-attends-carnival-of-venice-ft160_medium.jpg2017-02-15 22:48 226K 
[IMG]52385900-ant-carries-its-preyft160_medium.jpg2017-02-15 22:48 156K 
[IMG]52385903-businessman-holding-playing-cards-behind-his-back-ft160_medium.jpg2017-02-15 22:47 119K 
[IMG]52385906-serious-model-posing-in-the-sea-with-black-hatft160_medium.jpg2017-02-15 22:44 168K 
[IMG]52385920-grabfigurft160_medium.jpg2017-02-15 22:48 196K 
[IMG]52385921-venetian-costume-attends-carnival-of-venice-ft160_medium.jpg2017-02-15 22:45 195K 
[IMG]52385923-coinsft160_medium.jpg2017-02-15 22:46 211K 
[IMG]52385924-teddyft160_medium.jpg2017-02-15 22:48 239K 
[IMG]52385927-businessman-showing-playing-cards-ft160_medium.jpg2017-02-15 22:43 147K 
[IMG]52385930-ants-in-an-ant-hill-run-ft160_medium.jpg2017-02-15 22:49 173K 
[IMG]52385931-huebsche-frau-im-badezimmerft160_medium.jpg2017-02-15 22:46 136K 
[IMG]52385937-coinsft160_medium.jpg2017-02-15 22:46 197K 
[IMG]52385939-beautiful-ornate-seamless-background-with-heartsft160_medium.jpg2017-02-15 22:44 283K 
[IMG]52385941-young-asian-boy-just-losing-his-milk-toothft160_medium.jpg2017-02-15 22:48 145K 
[IMG]52385943-alte-schornsteineft160_medium.jpg2017-02-15 22:46 180K 
[IMG]52385946-coinsft160_medium.jpg2017-02-15 22:44 226K 
[IMG]52385951-viel-glueckft160_medium.jpg2017-02-15 22:44 168K 
[IMG]52385952-venetian-costume-attends-carnival-of-venice-ft160_medium.jpg2017-02-15 22:48 167K 
[IMG]52385954-coinsft160_medium.jpg2017-02-15 22:45 225K 
[IMG]52385962-lilasft160_medium.jpg2017-02-15 22:43 194K 
[IMG]52385964-coinsft160_medium.jpg2017-02-15 22:45 202K 
[IMG]52385972-coinsft160_medium.jpg2017-02-15 22:43 212K 
[IMG]52385974-flussdiagramm-breit-blue-backgroundft160_medium.jpg2017-02-15 22:44 150K 
[IMG]52385985-young-asian-boy-with-a-glass-of-milkft160_medium.jpg2017-02-15 22:44 143K 
[IMG]52385997-explorer-boyft160_medium.jpg2017-02-15 22:46 146K 
[IMG]52386005-website-template-with-metallic-textured-backgroundft160_medium.jpg2017-02-15 22:44 175K 
[IMG]52386017-solarpark-bei-homberg-effze-in-hessenft160_medium.jpg2017-02-15 22:43 170K 
[IMG]52386020-businessman-showing-playing-card-ft160_medium.jpg2017-02-15 22:47 152K 
[IMG]52386045-young-asian-boy-with-a-glass-of-milkft160_medium.jpg2017-02-15 22:48 151K 
[IMG]52386048-gluecksschweinft160_medium.jpg2017-02-15 22:48 153K 
[IMG]52386053-venetian-costume-attends-carnival-of-venice-ft160_medium.jpg2017-02-15 22:48 212K 
[IMG]52386054-animation-of-roulette-table-ft160_medium.jpg2017-02-15 22:48 201K 
[IMG]52386057-seo-web-development-concept-website-security-on-smartphoneft160_medium.jpg2017-02-15 22:45 171K 
[IMG]52386060-a-portrait-of-a-dentist-with-his-team-working-in-the-backgroundft160_medium.jpg2017-02-15 22:44 172K 
[IMG]52386067-scanner-target-animationft160_medium.jpg2017-02-15 22:45 121K 
[IMG]52386075-huebsche-frau-im-badezimmerft160_medium.jpg2017-02-15 22:43 139K 
[IMG]52386076-manikin-big-compassft160_medium.jpg2017-02-15 22:45 176K 
[IMG]52386084-young-asian-boy-holds-a-broomstick-as-a-microphone-for-singingft160_medium.jpg2017-02-15 22:47 150K 
[IMG]52386093-magic-triangleft160_medium.jpg2017-02-15 22:48 144K 
[IMG]52386095-vj-loop-animationft160_medium.jpg2017-02-15 22:44 134K 
[IMG]52386107-beriev-mbr-2-wwii-soviet-army-flying-boatft160_medium.jpg2017-02-15 22:46 135K 
[IMG]52386114-viel-glueckft160_medium.jpg2017-02-15 22:46 188K 
[IMG]52386115--514053ft160_medium.jpg2017-02-15 22:48 168K 
[IMG]52386117--115053ft160_medium.jpg2017-02-15 22:44 148K 
[IMG]52386125-floral-beauty-seamless-patternft160_medium.jpg2017-02-15 22:43 247K 
[IMG]52386128-ethnic-abstract-patternft160_medium.jpg2017-02-15 22:49 240K 
[IMG]52386130-solarpark-bei-homberg-effze-in-hessen-ft160_medium.jpg2017-02-15 22:45 159K 
[IMG]52386132-young-asian-child-with-a-digital-thermometerft160_medium.jpg2017-02-15 22:48 150K 
[IMG]52386135-frau-streckt-die-zunge-rausft160_medium.jpg2017-02-15 22:46 153K 
[IMG]52386137-social-media-concept-unlike-on-digital-backgroundft160_medium.jpg2017-02-15 22:44 172K 
[IMG]52386146-junge-frau-freut-sichft160_medium.jpg2017-02-15 22:45 130K 
[IMG]52386149-pork-ribsft160_medium.jpg2017-02-15 22:45 229K 
[IMG]52386158-set-playersft160_medium.jpg2017-02-15 22:44 175K 
[IMG]52386169-aphids-macroft160_medium.jpg2017-02-15 22:48 159K 
[IMG]52386171-snow-flake-animation-loopable-ft160_medium.jpg2017-02-15 22:46 154K 
[IMG]52386174-fresque-parisienneft160_medium.jpg2017-02-15 22:49 151K 
[IMG]52386188-aphids-macroft160_medium.jpg2017-02-15 22:44 132K 
[IMG]52386189-shiny-smileft160_medium.jpg2017-02-15 22:48 218K 
[IMG]52386190-porte-parisienneft160_medium.jpg2017-02-15 22:47 165K 
[IMG]52386194-zeche-radbodft160_medium.jpg2017-02-15 22:44 179K 
[IMG]52386198-geschirrft160_medium.jpg2017-02-15 22:49 153K 
[IMG]52386201-aphids-macroft160_medium.jpg2017-02-15 22:47 118K 
[IMG]52386205-zeche-radbodft160_medium.jpg2017-02-15 22:44 161K 
[IMG]52386207-porte-parisienneft160_medium.jpg2017-02-15 22:46 164K 
[IMG]52386214-geschirrft160_medium.jpg2017-02-15 22:44 149K 
[IMG]52386218-aphids-macroft160_medium.jpg2017-02-15 22:43 133K 
[IMG]52386221-balanceft160_medium.jpg2017-02-15 22:44 115K 
[IMG]52386227-anchor-in-torun-polandft160_medium.jpg2017-02-15 22:47 165K 
[IMG]52386234-many-fresh-spring-organic-vegetables-on-planks-gardening-conceptft160_medium.jpg2017-02-15 22:43 220K 
[IMG]52386240-huebsche-frau-im-badezimmerft160_medium.jpg2017-02-15 22:47 149K 
[IMG]52386246-finger-bones-of-the-third-finger-of-the-right-handft160_medium.jpg2017-02-15 22:43 132K 
[IMG]52386258-tourteauft160_medium.jpg2017-02-15 22:49 143K 
[IMG]52386261-holstentor-in-luebeckft160_medium.jpg2017-02-15 22:46 182K 
[IMG]52386263-many-fresh-spring-organic-vegetables-on-planks-gardening-conceptft160_medium.jpg2017-02-15 22:43 214K 
[IMG]52386267-huebsche-frau-im-badezimmerft160_medium.jpg2017-02-15 22:47 142K 
[IMG]52386280-timelapse-city-scene-loopable-ft160_medium.jpg2017-02-15 22:49 179K 
[IMG]52386289-backenft160_medium.jpg2017-02-15 22:47 169K 
[IMG]52386290-cavallettaft160_medium.jpg2017-02-15 22:46 158K 
[IMG]52386292-tourteauft160_medium.jpg2017-02-15 22:44 167K 
[IMG]52386293-military-airplan-on-the-speed-in-the-skyft160_medium.jpg2017-02-15 22:45 141K 
[IMG]52386300-portrait-of-a-maid-in-gloves-and-a-dust-brushft160_medium.jpg2017-02-15 22:48 148K 
[IMG]52386315-tomaten-und-salatgurkenft160_medium.jpg2017-02-15 22:44 180K 
[IMG]52386325-huebsche-frau-im-badezimmerft160_medium.jpg2017-02-15 22:45 149K 
[IMG]52386330-rose-seamless-pattern-with-heartsft160_medium.jpg2017-02-15 22:45 194K 
[IMG]52386331-romantic-school-vector-setft160_medium.jpg2017-02-15 22:47 194K 
[IMG]52386332-light-cute-pattern-with-flowers-dragonfliesft160_medium.jpg2017-02-15 22:43 231K 
[IMG]52386337-animation-of-stormy-seaft160_medium.jpg2017-02-15 22:43 124K 
[IMG]52386338-grunge-abstract-seamless-backgroundft160_medium.jpg2017-02-15 22:48 147K 
[IMG]52386348-viel-glueckft160_medium.jpg2017-02-15 22:48 225K 
[IMG]52386351-wellnessduftft160_medium.jpg2017-02-15 22:45 139K 
[IMG]52386364-vector-logo-familyft160_medium.jpg2017-02-15 22:46 126K 
[IMG]52386383-3d-render-of-cartoon-character-with-river-stoneft160_medium.jpg2017-02-15 22:47 116K 
[IMG]52386389-social-network-concept-like-on-computer-keyboard-backgroundft160_medium.jpg2017-02-15 22:48 159K 
[IMG]52386439-many-fresh-organic-vegetables-growing-in-the-garden-closeupft160_medium.jpg2017-02-15 22:46 208K 
[IMG]52386442-young-asian-boy-happy-with-his-homeworkft160_medium.jpg2017-02-15 22:47 165K 
[IMG]52386450-pile-de-livre-etude-enseignementft160_medium.jpg2017-02-15 22:46 156K 
[IMG]52386459-huebsche-frau-im-badezimmerft160_medium.jpg2017-02-15 22:47 140K 
[IMG]52386480-german-shepherd-dogft160_medium.jpg2017-02-15 22:47 207K 
[IMG]52386491-german-shepherd-dogft160_medium.jpg2017-02-15 22:43 201K 
[IMG]52386494-main-de-personne-victorieuseft160_medium.jpg2017-02-15 22:45 133K 
[IMG]52386495-viel-glueckft160_medium.jpg2017-02-15 22:47 181K 
[IMG]52386521-arrow-backgroundft160_medium.jpg2017-02-15 22:45 138K 
[IMG]52386526-huebsche-frau-im-badezimmerft160_medium.jpg2017-02-15 22:47 143K 
[IMG]52386530-mery-christmas-animation-ft160_medium.jpg2017-02-15 22:46 143K 
[IMG]52386535-rothaarige-schoenheitft160_medium.jpg2017-02-15 22:43 174K 
[IMG]52386539-german-shepherd-dogft160_medium.jpg2017-02-15 22:46 200K 
[IMG]52386546-3d-render-of-cartoon-character-with-shopping-cartft160_medium.jpg2017-02-15 22:48 144K 
[IMG]52386553-noeud-dans-une-cordeft160_medium.jpg2017-02-15 22:48 152K 
[IMG]52386555-many-fresh-organic-vegetables-growing-in-the-garden-closeupft160_medium.jpg2017-02-15 22:43 202K 
[IMG]52386568-vintage-cardft160_medium.jpg2017-02-15 22:49 173K 
[IMG]52386570-vintage-travel-cardft160_medium.jpg2017-02-15 22:44 167K 
[IMG]52386574-american-flag-4th-july-american-independence-day-vector-illustraft160_medium.jpg2017-02-15 22:49 142K 
[IMG]52386586-hot-air-ballon-on-fantasy-landscapeft160_medium.jpg2017-02-15 22:46 167K 
[IMG]52386589-3d-render-of-cartoon-character-with-smithy-hammerft160_medium.jpg2017-02-15 22:44 127K 
[IMG]52386594-many-fresh-organic-vegetables-growing-in-the-garden-closeupft160_medium.jpg2017-02-15 22:43 214K 
[IMG]52386598-huebsche-frau-im-badezimmerft160_medium.jpg2017-02-15 22:48 156K 
[IMG]52386611-cartable-mallette-d-ecolierft160_medium.jpg2017-02-15 22:46 144K 
[IMG]52386612-huebsche-blondine-mit-jeansjackeft160_medium.jpg2017-02-15 22:44 134K 
[IMG]52386615-viel-glueckft160_medium.jpg2017-02-15 22:47 191K 
[IMG]52386622ft160_medium.jpg2017-02-15 22:43 211K 
[IMG]52386626ft160_medium.jpg2017-02-15 22:49 164K 
[IMG]52386637-3d-render-of-cartoon-character-with-spannerft160_medium.jpg2017-02-15 22:49 125K 
[IMG]52386641-set-of-colorful-ribbons-vector-illustration-ft160_medium.jpg2017-02-15 22:43 169K 
[IMG]52386661-many-fresh-organic-vegetables-growing-in-the-garden-closeupft160_medium.jpg2017-02-15 22:47 206K 
[IMG]52386671-main-signe-d-acceptation-superft160_medium.jpg2017-02-15 22:44 136K 
[IMG]52386681-3d-render-of-cartoon-character-with-spiralft160_medium.jpg2017-02-15 22:47 122K 
[IMG]52386683-3d-render-of-cartoon-character-with-spider-in-handft160_medium.jpg2017-02-15 22:43 124K 
[IMG]52386684-3d-render-of-cartoon-character-with-spongeft160_medium.jpg2017-02-15 22:48 118K 
[IMG]52386688-huebsche-frau-im-badezimmerft160_medium.jpg2017-02-15 22:46 146K 
[IMG]52386691-explorer-boyft160_medium.jpg2017-02-15 22:43 154K 
[IMG]52386725-haengeweideft160_medium.jpg2017-02-15 22:44 152K 
[IMG]52386736-corde-de-chanvreft160_medium.jpg2017-02-15 22:47 135K 
[IMG]52386744-isolated-cut-strawberries-and-two-in-basketft160_medium.jpg2017-02-15 22:45 173K 
[IMG]52386745-immortalityft160_medium.jpg2017-02-15 22:45 255K 
[IMG]52386751-chicken-shish-kebabft160_medium.jpg2017-02-15 22:47 169K 
[IMG]52386753-isolated-strawberries-in-basketft160_medium.jpg2017-02-15 22:43 156K 
[IMG]52386765-huebsche-frau-im-badezimmerft160_medium.jpg2017-02-15 22:47 144K 
[IMG]52386768-chicken-shish-kebabft160_medium.jpg2017-02-15 22:45 191K 
[IMG]52386786-sheet-of-a-paper-in-a-roomft160_medium.jpg2017-02-15 22:47 159K 
[IMG]52386791-girl-just-wanna-have-funft160_medium.jpg2017-02-15 22:45 215K 
[IMG]52386797-damenschuheft160_medium.jpg2017-02-15 22:48 130K 
[IMG]52386800-brautschuhversteigerungft160_medium.jpg2017-02-15 22:48 149K 
[IMG]52386802-brautschuhversteigerungft160_medium.jpg2017-02-15 22:46 166K 
[IMG]52386803-chicken-shish-kebab-with-pan-roasted-onionft160_medium.jpg2017-02-15 22:44 192K 
[IMG]52386805-bank-im-fruehlingft160_medium.jpg2017-02-15 22:49 186K 
[IMG]52386820-horisontal-blue-silkft160_medium.jpg2017-02-15 22:44 163K 
[IMG]52386821-3d-render-of-cartoon-character-with-swordft160_medium.jpg2017-02-15 22:48 122K 
[IMG]52386823-chaine-en-acier-securiteft160_medium.jpg2017-02-15 22:47 137K 
[IMG]52386858-huebsche-frau-im-badezimmerft160_medium.jpg2017-02-15 22:48 146K 
[IMG]52386865-3d-render-of-cartoon-character-with-telephoneft160_medium.jpg2017-02-15 22:43 127K 
[IMG]52386872-victoire-signe-de-la-mainft160_medium.jpg2017-02-15 22:48 146K 
[IMG]52386894-arabic-islamic-calligraphy-of-shiny-text-eid-mubarak-on-grungy-bft160_medium.jpg2017-02-15 22:44 186K 
[IMG]52386896-arabic-islamic-calligraphy-of-shiny-text-eid-mubarak-on-orange-rft160_medium.jpg2017-02-15 22:44 187K 
[IMG]52386898-possibleft160_medium.jpg2017-02-15 22:46 130K 
[IMG]52386905-bombe-et-etincelleft160_medium.jpg2017-02-15 22:43 138K 
[IMG]52386914-pakistan-mapft160_medium.jpg2017-02-15 22:49 152K 
[IMG]52386919-huebsche-blondine-mit-jeansjackeft160_medium.jpg2017-02-15 22:47 139K 
[IMG]52386920-africa-mapft160_medium.jpg2017-02-15 22:43 162K 
[IMG]52386927-vector-logo-familyft160_medium.jpg2017-02-15 22:47 140K 
[IMG]52386931-happy-fathers-day-background-ft160_medium.jpg2017-02-15 22:46 185K 
[IMG]52386933-venetian-costume-attends-carnival-of-venice-ft160_medium.jpg2017-02-15 22:45 165K 
[IMG]52386936-bourse-d-argent-signe-euroft160_medium.jpg2017-02-15 22:46 159K 
[IMG]52386948-happy-fathers-day-background-ft160_medium.jpg2017-02-15 22:45 227K 
[IMG]52386952-huebsche-frau-im-badezimmerft160_medium.jpg2017-02-15 22:48 161K 
[IMG]52386964-orange-juice-and-sunglasses-on-the-beach-exuma-bahamasft160_medium.jpg2017-02-15 22:44 130K 
[IMG]52386988-bouquet-pour-mamanft160_medium.jpg2017-02-15 22:47 166K 
[IMG]52387010-grilled-pork-ribs-on-the-grill-ft160_medium.jpg2017-02-15 22:43 249K 
[IMG]52387018-engineer-talking-on-the-cell-phone-near-to-gsm-towerft160_medium.jpg2017-02-15 22:44 155K 
[IMG]52387023-kind-am-maltisch-3ft160_medium.jpg2017-02-15 22:48 136K 
[IMG]52387024-kind-am-maltisch-2ft160_medium.jpg2017-02-15 22:46 140K 
[IMG]52387026-des-fleurs-pour-mamanft160_medium.jpg2017-02-15 22:48 160K 
[IMG]52387031-kolorowe-tulipany-i-czerwone-sercaft160_medium.jpg2017-02-15 22:44 151K 
[IMG]52387033ft160_medium.jpg2017-02-15 22:45 166K 
[IMG]52387039-glueckliches-ehepaarft160_medium.jpg2017-02-15 22:43 143K 
[IMG]52387045-mann-umarmt-seine-frauft160_medium.jpg2017-02-15 22:47 173K 
[IMG]52387048-portrait-eheleuteft160_medium.jpg2017-02-15 22:47 156K 
[IMG]52387051-zahnradft160_medium.jpg2017-02-15 22:47 134K 
[IMG]52387069-social-media-concept-follow-us-on-smartphoneft160_medium.jpg2017-02-15 22:49 146K 
[IMG]52387076-smartphone-entertainmentft160_medium.jpg2017-02-15 22:47 190K 
[IMG]52387078-happy-fathers-day-background-ft160_medium.jpg2017-02-15 22:48 246K 
[IMG]52387079-venetian-costume-attends-carnival-of-venice-ft160_medium.jpg2017-02-15 22:44 193K 
[IMG]52387086-blowout-sale-shiny-glass-speech-bubbleft160_medium.jpg2017-02-15 22:47 179K 
[IMG]52387088-animated-nebula-sceneft160_medium.jpg2017-02-15 22:46 145K 
[IMG]52387091-happy-easter-card-with-runing-rabbit-ft160_medium.jpg2017-02-15 22:47 136K 
[IMG]52387094-green-seamless-easter-paper-set-ft160_medium.jpg2017-02-15 22:47 177K 
[IMG]52387100-old-speaker-sound-system-orange-grunge-deejay-djft160_medium.jpg2017-02-15 22:44 192K 
[IMG]52387102-red-grunge-old-speaker-sound-system-deejay-djft160_medium.jpg2017-02-15 22:44 178K 
[IMG]52387105-motor-race-party-design-template-with-beautiful-girl-and-retro-cft160_medium.jpg2017-02-15 22:44 182K 
[IMG]52387106ft160_medium.jpg2017-02-15 22:46 143K 
[IMG]52387107-engineer-with-a-dandelion-near-the-nose-on-gsm-tower-backgroundft160_medium.jpg2017-02-15 22:49 160K 
[IMG]52387108ft160_medium.jpg2017-02-15 22:45 125K 
[IMG]52387109-motor-race-party-design-retro-redft160_medium.jpg2017-02-15 22:48 204K 
[IMG]52387110-massive-sale-design-template-with-balloons-carrying-shopping-bagft160_medium.jpg2017-02-15 22:45 187K 
[IMG]52387112-massive-summer-sale-design-template-with-balloonsft160_medium.jpg2017-02-15 22:49 181K 
[IMG]52387113-happy-fathers-day-background-ft160_medium.jpg2017-02-15 22:43 226K 
[IMG]52387131-happy-fathers-day-background-ft160_medium.jpg2017-02-15 22:45 209K 
[IMG]52387138-animated-nebula-sceneft160_medium.jpg2017-02-15 22:43 162K 
[IMG]52387139ft160_medium.jpg2017-02-15 22:44 170K 
[IMG]52387161-huebsche-blondine-mit-jeansjackeft160_medium.jpg2017-02-15 22:44 122K 
[IMG]52387177ft160_medium.jpg2017-02-15 22:46 256K 
[IMG]52387178ft160_medium.jpg2017-02-15 22:45 210K 
[IMG]52387204-arabic-islamic-calligraphy-of-shiny-text-ramadan-kareem-or-ramazft160_medium.jpg2017-02-15 22:47 189K 
[IMG]52387206-social-network-concept-social-network-on-digital-backgroundft160_medium.jpg2017-02-15 22:43 185K 
[IMG]52387209-dry-and-barren-landft160_medium.jpg2017-02-15 22:44 255K 
[IMG]52387210-dry-and-barren-landft160_medium.jpg2017-02-15 22:48 226K 
[IMG]52387215-clavier-bonne-fete-papaft160_medium.jpg2017-02-15 22:48 146K 
[IMG]52387217-bulle-bonne-fete-papaft160_medium.jpg2017-02-15 22:47 149K 
[IMG]52387228-arabic-islamic-calligraphy-pof-shiny-text-ramadan-kareem-or-ramaft160_medium.jpg2017-02-15 22:43 171K 
[IMG]52387239-leopard-t-shirt-design-all-elements-are-editableft160_medium.jpg2017-02-15 22:47 188K 
[IMG]52387240-beer-list-backgroundft160_medium.jpg2017-02-15 22:44 118K 
[IMG]52387251-ice-cold-beer-background-old-tavern-or-pubft160_medium.jpg2017-02-15 22:45 184K 
[IMG]52387257-buildings-forming-a-bar-chartft160_medium.jpg2017-02-15 22:49 140K 
[IMG]52387280-white-plate-on-a-checkered-red-tableclothft160_medium.jpg2017-02-15 22:46 234K 
[IMG]52387285-cute-valentine-s-seamless-pattern-with-heartsft160_medium.jpg2017-02-15 22:46 222K 
[IMG]52387289-damenschuheft160_medium.jpg2017-02-15 22:47 124K 
[IMG]52387297-south-america-mapft160_medium.jpg2017-02-15 22:48 149K 
[IMG]52387308-pattern-with-triangles-and-torusft160_medium.jpg2017-02-15 22:43 195K 
[IMG]52387316-vollkornbrot-mit-leberwurstft160_medium.jpg2017-02-15 22:47 170K 
[IMG]52387319-businessconceptft160_medium.jpg2017-02-15 22:45 155K 
[IMG]52387336-wooden-churchft160_medium.jpg2017-02-15 22:43 147K 
[IMG]52387357-panorama-of-the-chestnut-tree-at-the-top-of-the-hillft160_medium.jpg2017-02-15 22:46 141K 
[IMG]52387361-canceled-abgesagtft160_medium.jpg2017-02-15 22:47 151K 
[IMG]52387368-internet-and-web-design-hand-drawn-doodlesft160_medium.jpg2017-02-15 22:48 242K 
[IMG]52387399-key-with-house-iconft160_medium.jpg2017-02-15 22:47 168K 
[IMG]52387403-venetian-costume-attends-carnival-of-venice-ft160_medium.jpg2017-02-15 22:45 225K 
[IMG]52387409-park-alleyft160_medium.jpg2017-02-15 22:47 159K 
[IMG]52387425-vector-ecology-conceptft160_medium.jpg2017-02-15 22:48 183K 
[IMG]52387429-vectoor-education-concept-question-signft160_medium.jpg2017-02-15 22:48 158K 
[IMG]52387431-caucasian-businessman-with-briefcaseft160_medium.jpg2017-02-15 22:44 124K 
[IMG]52387434-businessman-carrying-a-briefcaseft160_medium.jpg2017-02-15 22:47 115K 
[IMG]52387437-businessman-holding-a-planeft160_medium.jpg2017-02-15 22:45 133K 
[IMG]52387438-animated-3d-gears-loopable-ft160_medium.jpg2017-02-15 22:43 165K 
[IMG]52387439-vector-education-and-science-conceptft160_medium.jpg2017-02-15 22:47 183K 
[IMG]52387459-hand-drawn-seamless-pattern-with-kids-and-summer-symbolsft160_medium.jpg2017-02-15 22:49 277K 
[IMG]52387467-illustration-of-the-tabby-cat-sitting-in-a-basket-with-roses-ft160_medium.jpg2017-02-15 22:47 178K 
[IMG]52387477-businessman-putting-ace-card-in-his-pocket-ft160_medium.jpg2017-02-15 22:47 144K 
[IMG]52387486-vector-cartoon-tiger-funny-characterft160_medium.jpg2017-02-15 22:44 148K 
[IMG]52387493-shopping-timeft160_medium.jpg2017-02-15 22:48 162K 
[IMG]52387494-vector-business-brochure-flyerft160_medium.jpg2017-02-15 22:43 179K 
[IMG]52387495-abstract-backgroundft160_medium.jpg2017-02-15 22:49 301K 
[IMG]52387506-kinderhaende-beim-malenft160_medium.jpg2017-02-15 22:43 153K 
[IMG]52387511-head-of-an-eagle-tattoo-black-and-whiteft160_medium.jpg2017-02-15 22:48 158K 
[IMG]52387514-businessconceptft160_medium.jpg2017-02-15 22:43 186K 
[IMG]52387521-ostrich-struthio-camelusft160_medium.jpg2017-02-15 22:44 197K 
[IMG]52387522-businessman-with-ace-card-hidden-under-sleeve-ft160_medium.jpg2017-02-15 22:47 149K 
[IMG]52387529-businessconceptft160_medium.jpg2017-02-15 22:46 178K 
[IMG]52387545-vector-of-autumnal-leaves-on-sunny-background-ft160_medium.jpg2017-02-15 22:48 179K 
[IMG]52387550-telephone-ancienft160_medium.jpg2017-02-15 22:45 141K 
[IMG]52387551-basketball-eagleft160_medium.jpg2017-02-15 22:46 212K 
[IMG]52387560-mann-beim-boxenft160_medium.jpg2017-02-15 22:45 127K 
[IMG]52387575-sitting-man-using-a-digital-tablet-ft160_medium.jpg2017-02-15 22:44 130K 
[IMG]52387577-coeur-transperce-par-une-fleche-cupidonft160_medium.jpg2017-02-15 22:47 154K 
[IMG]52387589-social-network-concept-social-media-on-digital-backgroundft160_medium.jpg2017-02-15 22:45 180K 
[IMG]52387595-main-signe-ok-d-acceptationft160_medium.jpg2017-02-15 22:43 142K 
[IMG]52387598-blue-penstemon-flowers-in-a-yellow-vase-on-a-woodenft160_medium.jpg2017-02-15 22:47 179K 
[IMG]52387600-drawn-colorful-circle-backgroundft160_medium.jpg2017-02-15 22:49 300K 
[IMG]52387601-iona-abbeyft160_medium.jpg2017-02-15 22:44 167K 
[IMG]52387603-castle-and-lochft160_medium.jpg2017-02-15 22:47 137K 
[IMG]52387606-trebuchet-and-castleft160_medium.jpg2017-02-15 22:48 162K 
[IMG]52387607-frameft160_medium.jpg2017-02-15 22:44 125K 
[IMG]52387613-businessman-showing-playing-card-ft160_medium.jpg2017-02-15 22:49 143K 
[IMG]52387618-pouce-leve-acceptation-signe-okft160_medium.jpg2017-02-15 22:46 132K 
[IMG]52387624-ostrich-struthio-camelusft160_medium.jpg2017-02-15 22:43 182K 
[IMG]52387626-huebsche-frau-im-badezimmerft160_medium.jpg2017-02-15 22:47 137K 
[IMG]52387627-detente-sur-plage-des-seychellesft160_medium.jpg2017-02-15 22:45 178K 
[IMG]52387628-prescription-drugsft160_medium.jpg2017-02-15 22:49 173K 
[IMG]52387634-idee-konzeptft160_medium.jpg2017-02-15 22:44 179K 
[IMG]52387638-vintage-abstract-retro-lace-banner-backgroundft160_medium.jpg2017-02-15 22:45 153K 
[IMG]52387652-texture-canvas-old-fabricft160_medium.jpg2017-02-15 22:43 174K 
[IMG]52387653-huebsche-frau-im-badezimmerft160_medium.jpg2017-02-15 22:46 131K 
[IMG]52387654-corde-usee-fil-lien-dangerft160_medium.jpg2017-02-15 22:46 142K 
[IMG]52387655-vintage-texture-canvas-old-fabricft160_medium.jpg2017-02-15 22:44 217K 
[IMG]52387656-seamless-flower-invitation-card-backgroundft160_medium.jpg2017-02-15 22:43 192K 
[IMG]52387671-businessman-with-ace-card-hidden-under-sleeve-ft160_medium.jpg2017-02-15 22:44 124K 
[IMG]52387672-hipster-seamless-aztec-pattern-with-geometric-elementsft160_medium.jpg2017-02-15 22:43 259K 
[IMG]52387679-pile-de-livre-d-ecoleft160_medium.jpg2017-02-15 22:46 157K 
[IMG]52387683-field-of-beautiful-purple-and-white-dutch-hyacinthsft160_medium.jpg2017-02-15 22:48 197K 
[IMG]52387686-parody-of-a-latin-lover-calling-by-phoneft160_medium.jpg2017-02-15 22:46 131K 
[IMG]52387691-businessman-with-ace-card-hidden-under-sleeve-ft160_medium.jpg2017-02-15 22:49 126K 
[IMG]52387692-justitia-vs-frankfurter-roemerft160_medium.jpg2017-02-15 22:46 183K 
[IMG]52387693-pneuft160_medium.jpg2017-02-15 22:49 159K 
[IMG]52387695-tandemistes-11ft160_medium.jpg2017-02-15 22:43 168K 
[IMG]52387697-design-of-the-building-ft160_medium.jpg2017-02-15 22:45 176K 
[IMG]52387699-bleft160_medium.jpg2017-02-15 22:43 162K 
[IMG]52387700-parody-of-a-latin-lover-calling-by-phone-on-the-beachft160_medium.jpg2017-02-15 22:45 150K 
[IMG]52387704-mandarin-duck-aix-galericulataft160_medium.jpg2017-02-15 22:44 191K 
[IMG]52387730-a-beautiful-brown-horse-grazing-in-the-pastureft160_medium.jpg2017-02-15 22:48 172K 
[IMG]52387733-vintage-menu-of-the-day-background-template-ft160_medium.jpg2017-02-15 22:46 153K 
[IMG]52387734-businessman-showing-playing-card-ft160_medium.jpg2017-02-15 22:44 155K 
[IMG]52387742-frameft160_medium.jpg2017-02-15 22:49 136K 
[IMG]52387745-windows-with-urban-reflectionft160_medium.jpg2017-02-15 22:44 220K 
[IMG]52387751-mother-and-daughter-isolated-on-a-white-backgroundft160_medium.jpg2017-02-15 22:46 159K 
[IMG]52387764-mother-and-daughter-isolated-on-a-white-backgroundft160_medium.jpg2017-02-15 22:47 148K 
[IMG]52387772-mother-and-daughter-isolated-on-a-white-backgroundft160_medium.jpg2017-02-15 22:46 149K 
[IMG]52387774-various-sewing-suppliesft160_medium.jpg2017-02-15 22:42 164K 
[IMG]52387777-mother-and-daughter-isolated-on-a-white-backgroundft160_medium.jpg2017-02-15 22:44 147K 
[IMG]52387780-mother-and-daughter-isolated-on-a-white-backgroundft160_medium.jpg2017-02-15 22:46 148K 
[IMG]52387782-sony-dscft160_medium.jpg2017-02-15 22:44 168K 
[IMG]52387793-blondine-mit-schutzhelmft160_medium.jpg2017-02-15 22:44 142K 
[IMG]52387795-huebsche-frau-im-badezimmerft160_medium.jpg2017-02-15 22:44 135K 
[IMG]52387804-mother-and-daughter-isolated-on-a-white-backgroundft160_medium.jpg2017-02-15 22:43 142K 
[IMG]52387822-blondine-mit-schutzhelmft160_medium.jpg2017-02-15 22:48 133K 
[IMG]52387823-pusteblumen-loewenzahn-wiese-im-fruehlingft160_medium.jpg2017-02-15 22:45 180K 
[IMG]52387831-blatt-mit-tau-wassertropfenft160_medium.jpg2017-02-15 22:49 191K 
[IMG]52387853ft160_medium.jpg2017-02-15 22:47 186K 
[IMG]52387866-blondine-mit-schutzhelmft160_medium.jpg2017-02-15 22:45 136K 
[IMG]52387867-hand-screwingft160_medium.jpg2017-02-15 22:44 129K 
[IMG]52387879-blatt-mit-adern-netzwerk-der-naturft160_medium.jpg2017-02-15 22:44 183K 
[IMG]52387920-business-concept-trade-on-paper-backgroundft160_medium.jpg2017-02-15 22:47 158K 
[IMG]52387923-blattadern-netzwerkstruktur-der-naturft160_medium.jpg2017-02-15 22:46 183K 
[IMG]52387939-meeting-timeft160_medium.jpg2017-02-15 22:45 139K 
[IMG]52387940-meeting-timeft160_medium.jpg2017-02-15 22:43 140K 
[IMG]52387941-meeting-timeft160_medium.jpg2017-02-15 22:47 140K 
[IMG]52387942-meeting-timeft160_medium.jpg2017-02-15 22:44 125K 
[IMG]52387953-young-girl-with-painted-fingers-isolated-on-a-white-backgroundft160_medium.jpg2017-02-15 22:49 158K 
[IMG]52387959-frameft160_medium.jpg2017-02-15 22:44 123K 
[IMG]52387966-venetian-costume-attends-carnival-of-venice-ft160_medium.jpg2017-02-15 22:47 210K 
[IMG]52387969ft160_medium.jpg2017-02-15 22:45 161K 
[IMG]52387974-roadft160_medium.jpg2017-02-15 22:44 119K 
[IMG]52387989-ancient-ruins-at-the-desert-egyptft160_medium.jpg2017-02-15 22:46 189K 
[IMG]52388001ft160_medium.jpg2017-02-15 22:49 189K 
[IMG]52388002-3d-animation-of-neuron-cells-ft160_medium.jpg2017-02-15 22:47 152K 
[IMG]52388012-old-classic-yellow-plane-isolated-whiteft160_medium.jpg2017-02-15 22:43 129K 
[IMG]52388022-supporterft160_medium.jpg2017-02-15 22:46 159K 
[IMG]52388023-an-animated-space-scene-ft160_medium.jpg2017-02-15 22:46 147K 
[IMG]52388026-sunsetft160_medium.jpg2017-02-15 22:48 147K 
[IMG]52388049-pink-tulipsft160_medium.jpg2017-02-15 22:44 156K 
[IMG]52388056-yellow-tupilsft160_medium.jpg2017-02-15 22:44 189K 
[IMG]52388072-social-network-concept-unlike-on-alphabet-backgroundft160_medium.jpg2017-02-15 22:47 180K 
[IMG]52388084-oktoberfest-herzsymbolft160_medium.jpg2017-02-15 22:45 182K 
[IMG]52388086-supporter-slovaqueft160_medium.jpg2017-02-15 22:44 156K 
[IMG]52388092-slovakian-fanft160_medium.jpg2017-02-15 22:45 155K 
[IMG]52388105-diving-kidfs_full.jpg2017-02-15 22:48 589K 
[IMG]52388107-supporter-slovaqueft160_medium.jpg2017-02-15 22:43 141K 
[IMG]52388108-businessman-speechft160_medium.jpg2017-02-15 22:44 148K 
[IMG]52388111-sea-animal-setft160_medium.jpg2017-02-15 22:46 178K 
[IMG]52388120-sandalft160_medium.jpg2017-02-15 22:47 174K 
[IMG]52388148-hand-of-a-younger-woman-holding-the-hand-of-an-elderly-woman-ft160_medium.jpg2017-02-15 22:44 137K 
[IMG]52388152-business-stickersft160_medium.jpg2017-02-15 22:48 176K 
[IMG]52388195-antique-paper-with-decorative-frame-and-torn-edgesft160_medium.jpg2017-02-15 22:46 135K 
[IMG]52388196-burning-candleft160_medium.jpg2017-02-15 22:49 102K 
[IMG]52388197-pakistan-administrative-divisionsft160_medium.jpg2017-02-15 22:44 142K 
[IMG]52388202-alte-oper-in-frankfurt-am-main-mit-opernburnnenft160_medium.jpg2017-02-15 22:45 212K 
[IMG]52388205-the-digital-electronic-lockft160_medium.jpg2017-02-15 22:45 124K 
[IMG]52388210-raven-silhouetteft160_medium.jpg2017-02-15 22:48 116K 
[IMG]52388259-broadcast-news-animation-ft160_medium.jpg2017-02-15 22:48 110K 
[IMG]52388270-ancient-ruins-at-the-desert-egyptft160_medium.jpg2017-02-15 22:46 180K 
[IMG]52388287-competition-in-businessft160_medium.jpg2017-02-15 22:43 122K 
[IMG]52388296-pleurerft160_medium.jpg2017-02-15 22:45 145K 
[IMG]52388305-compassft160_medium.jpg2017-02-15 22:47 171K 
[IMG]52388330-maison-abandonneeft160_medium.jpg2017-02-15 22:43 201K 
[IMG]52388333-congratulation-invitation-card-with-diamond-vectorft160_medium.jpg2017-02-15 22:46 165K 
[IMG]52388337-greeting-invitation-card-with-diamond-vectorft160_medium.jpg2017-02-15 22:45 130K 
[IMG]52388343-2013-vector-calendarft160_medium.jpg2017-02-15 22:44 165K 
[IMG]52388351-digital-slr-cameraft160_medium.jpg2017-02-15 22:48 133K 
[IMG]52388359-hand-of-a-younger-woman-holding-the-hand-of-an-elderly-woman-ft160_medium.jpg2017-02-15 22:45 137K 
[IMG]52388361-digitale-spiegelreflex-kameraft160_medium.jpg2017-02-15 22:46 138K 
[IMG]52388366-fliege-schmeissfliege-insekt-set-sammlungft160_medium.jpg2017-02-15 22:44 135K 
[IMG]52388368-grub-cockchaferft160_medium.jpg2017-02-15 22:46 141K 
[IMG]52388373-facade-de-maison-abandonneeft160_medium.jpg2017-02-15 22:46 216K 
[IMG]52388376-point-d-interrogation-tachesft160_medium.jpg2017-02-15 22:43 128K 
[IMG]52388380-dslr-camera-on-white-isolatedft160_medium.jpg2017-02-15 22:44 117K 
[IMG]52388381-social-network-concept-golden-like-on-digital-backgroundft160_medium.jpg2017-02-15 22:45 173K 
[IMG]52388383-digital-camera-back-with-displayft160_medium.jpg2017-02-15 22:43 126K 
[IMG]52388389-digital-slr-camera-with-macro-objektivft160_medium.jpg2017-02-15 22:46 117K 
[IMG]52388391-slr-camera-bodyft160_medium.jpg2017-02-15 22:45 117K 
[IMG]52388396-mur-rouge-vintage-coloreft160_medium.jpg2017-02-15 22:49 213K 
[IMG]52388406-tote-fliege-auf-dem-ruecken-auf-weissem-hintergrundft160_medium.jpg2017-02-15 22:43 113K 
[IMG]52388409-spiegelreflexkamera-body-freistellerft160_medium.jpg2017-02-15 22:44 119K 
[IMG]52388415-chagrinft160_medium.jpg2017-02-15 22:45 160K 
[IMG]52388417-fliege-schmeissfliege-schwarzfliege-auf-weissem-hintergrundft160_medium.jpg2017-02-15 22:46 115K 
[IMG]52388418-grub-cockchaferft160_medium.jpg2017-02-15 22:47 148K 
[IMG]52388420-hausfliege-schmeissfliege-insekt-auf-weissft160_medium.jpg2017-02-15 22:43 123K 
[IMG]52388423-schmeissfliege-insekt-freisteller-auf-weissft160_medium.jpg2017-02-15 22:45 113K 
[IMG]52388433-fenetre-de-maison-abandonneeft160_medium.jpg2017-02-15 22:46 206K 
[IMG]52388435-hausfliege-mit-fluegeln-setft160_medium.jpg2017-02-15 22:43 157K 
[IMG]52388439ft160_medium.jpg2017-02-15 22:44 159K 
[IMG]52388446-ausgedrueckter-zigarettenstummel-auf-weissft160_medium.jpg2017-02-15 22:45 143K 
[IMG]52388455-dessert-al-caffe-e-vanigliaft160_medium.jpg2017-02-15 22:48 157K 
[IMG]52388480-tristesse-supporterft160_medium.jpg2017-02-15 22:43 161K 
[IMG]52388485-tourist-boatft160_medium.jpg2017-02-15 22:47 190K 
[IMG]52388486ft160_medium.jpg2017-02-15 22:43 169K 
[IMG]52388512-billard-kugeln-beim-anstossft160_medium.jpg2017-02-15 22:46 129K 
[IMG]52388525-billardstossft160_medium.jpg2017-02-15 22:46 140K 
[IMG]52388532-historical-reenactment-of-wwii-in-kiev-ukraineft160_medium.jpg2017-02-15 22:49 153K 
[IMG]52388542-slovakian-fanft160_medium.jpg2017-02-15 22:48 154K 
[IMG]52388610-snooker-anstoss-weisse-kugelft160_medium.jpg2017-02-15 22:44 139K 
[IMG]52388611-broadcast-news-animation-ft160_medium.jpg2017-02-15 22:46 120K 
[IMG]52388623-slovakian-fanft160_medium.jpg2017-02-15 22:48 151K 
[IMG]52388637-little-egret-egretta-garzetta-at-wild-lifeft160_medium.jpg2017-02-15 22:45 130K 
[IMG]52388652-billard-kugeln-set-in-einem-dreieckft160_medium.jpg2017-02-15 22:43 157K 
[IMG]52388653-supporterft160_medium.jpg2017-02-15 22:48 153K 
[IMG]52388655-billard-kugeln-auf-einem-billardtischft160_medium.jpg2017-02-15 22:46 130K 
[IMG]52388662-marathon-2013-vectorft160_medium.jpg2017-02-15 22:46 156K 
[IMG]52388672-dessert-al-caffe-e-vanigliaft160_medium.jpg2017-02-15 22:45 157K 
[IMG]52388685-schwarze-acht-billard-kugelft160_medium.jpg2017-02-15 22:43 136K 
[IMG]52388692-billardkugeln-beim-einsortierenft160_medium.jpg2017-02-15 22:46 159K 
[IMG]52388700-slovakian-womanft160_medium.jpg2017-02-15 22:46 148K 
[IMG]52388702-zemun-sunsetft160_medium.jpg2017-02-15 22:43 109K 
[IMG]52388705-slovakian-fanft160_medium.jpg2017-02-15 22:46 166K 
[IMG]52388708-slovakian-fanft160_medium.jpg2017-02-15 22:45 152K 
[IMG]52388711-aachen-dom-eingangstorft160_medium.jpg2017-02-15 22:45 191K 
[IMG]52388715-thermal-power-plantft160_medium.jpg2017-02-15 22:47 146K 
[IMG]52388721-aachen-dom-teufelskopf-eingangstuereft160_medium.jpg2017-02-15 22:46 154K 
[IMG]52388730-social-network-concept-like-us-on-computer-keyboard-backgroundft160_medium.jpg2017-02-15 22:43 203K 
[IMG]52388732-aachener-dom-eingangft160_medium.jpg2017-02-15 22:47 192K 
[IMG]52388749-graffiti-auf-einem-garagentor-bei-nachtft160_medium.jpg2017-02-15 22:47 162K 
[IMG]52388751-slovakian-fanft160_medium.jpg2017-02-15 22:44 168K 
[IMG]52388766-ladybug-macroft160_medium.jpg2017-02-15 22:43 126K 
[IMG]52388780-klimatechnik-belueftung-rohre-abzugft160_medium.jpg2017-02-15 22:49 132K 
[IMG]52388785-il-duomo-di-sienaft160_medium.jpg2017-02-15 22:46 198K 
[IMG]52388790-security-cameraft160_medium.jpg2017-02-15 22:44 122K 
[IMG]52388792-il-duomo-di-sienaft160_medium.jpg2017-02-15 22:45 172K 
[IMG]52388794-idee-konzeptft160_medium.jpg2017-02-15 22:45 146K 
[IMG]52388795-kameraueberwachung-zur-sicherheitft160_medium.jpg2017-02-15 22:46 132K 
[IMG]52388797-africa-ethnic-art-pattern-texture-with-gecko-arte-africanaft160_medium.jpg2017-02-15 22:44 330K 
[IMG]52388808-animation-of-city-flightft160_medium.jpg2017-02-15 22:44 145K 
[IMG]52388809-siena-la-lupa-di-piazza-del-duomoft160_medium.jpg2017-02-15 22:44 179K 
[IMG]52388810-dessert-al-caffe-e-vanigliaft160_medium.jpg2017-02-15 22:48 179K 
[IMG]52388816-framlingam-castle-with-treeft160_medium.jpg2017-02-15 22:43 143K 
[IMG]52388817-il-duomo-di-sienaft160_medium.jpg2017-02-15 22:45 190K 
[IMG]52388818-thermal-power-plantft160_medium.jpg2017-02-15 22:45 131K 
[IMG]52388820-il-duomo-di-sienaft160_medium.jpg2017-02-15 22:43 187K 
[IMG]52388822-bonne-fete-papaft160_medium.jpg2017-02-15 22:43 251K 
[IMG]52388823-woman-and-little-girl-washing-dishes-in-the-kitchenft160_medium.jpg2017-02-15 22:47 162K 
[IMG]52388829-framlingham-castle-entranceft160_medium.jpg2017-02-15 22:45 144K 
[IMG]52388830-ideeft160_medium.jpg2017-02-15 22:45 170K 
[IMG]52388832-loopable-animation-of-connected-lines-ft160_medium.jpg2017-02-15 22:44 168K 
[IMG]52388834-slovakian-fanft160_medium.jpg2017-02-15 22:49 152K 
[IMG]52388835-siena-la-lupa-di-piazza-del-duomoft160_medium.jpg2017-02-15 22:47 208K 
[IMG]52388836-high-speed-carft160_medium.jpg2017-02-15 22:43 172K 
[IMG]52388838-il-duomo-di-sienaft160_medium.jpg2017-02-15 22:45 184K 
[IMG]52388839-little-chef-washing-vegetablesft160_medium.jpg2017-02-15 22:43 159K 
[IMG]52388844-il-duomo-di-sienaft160_medium.jpg2017-02-15 22:46 212K 
[IMG]52388848-kids-washing-vegetables-in-the-kitchenft160_medium.jpg2017-02-15 22:48 192K 
[IMG]52388850-siena-la-lupa-di-piazza-del-duomoft160_medium.jpg2017-02-15 22:43 199K 
[IMG]52388861-woman-and-kids-preparing-the-vegetables-for-a-mealft160_medium.jpg2017-02-15 22:45 187K 
[IMG]52388865-amazing-blue-lake-among-the-sand-and-rocksft160_medium.jpg2017-02-15 22:44 204K 
[IMG]52388868-slovakian-fanft160_medium.jpg2017-02-15 22:45 158K 
[IMG]52388876-woman-and-kids-washing-vegetables-in-the-kitchenft160_medium.jpg2017-02-15 22:43 187K 
[IMG]52388890-dessert-al-caffe-e-vanigliaft160_medium.jpg2017-02-15 22:45 179K 
[IMG]52388896-little-boy-with-chef-hat-washing-vegetablesft160_medium.jpg2017-02-15 22:44 166K 
[IMG]52388912-business-concept-with-text-fieldsft160_medium.jpg2017-02-15 22:43 160K 
[IMG]52388915-sport-supporterft160_medium.jpg2017-02-15 22:49 116K 
[IMG]52388917-happy-kids-washing-vegetables-for-a-saladft160_medium.jpg2017-02-15 22:45 179K 
[IMG]52388920-social-media-concept-golden-like-on-digital-backgroundft160_medium.jpg2017-02-15 22:46 171K 
[IMG]52388925-unicornft160_medium.jpg2017-02-15 22:45 166K 
[IMG]52388947-little-girl-stretching-the-cookie-doughft160_medium.jpg2017-02-15 22:46 158K 
[IMG]52388951-slovakian-fanft160_medium.jpg2017-02-15 22:44 126K 
[IMG]52388965-little-girl-making-pizzaft160_medium.jpg2017-02-15 22:44 161K 
[IMG]52388968-slovakian-fanft160_medium.jpg2017-02-15 22:44 160K 
[IMG]52388969-classical-musicianft160_medium.jpg2017-02-15 22:49 150K 
[IMG]52388970-black-pebble-stones-background-vector-eps10-illustration-ft160_medium.jpg2017-02-15 22:48 169K 
[IMG]52388972-supporter-slovaqueft160_medium.jpg2017-02-15 22:45 160K 
[IMG]52388983-playing-boy-on-whiteft160_medium.jpg2017-02-15 22:45 121K 
[IMG]52388986-beautiful-woman-wearing-an-colorful-scarveft160_medium.jpg2017-02-15 22:44 168K 
[IMG]52388989-slovakian-fanft160_medium.jpg2017-02-15 22:49 175K 
[IMG]52388993-toes-ft160_medium.jpg2017-02-15 22:47 130K 
[IMG]52388995-basket-of-herbsft160_medium.jpg2017-02-15 22:47 180K 
[IMG]52388996-happy-kids-holding-their-new-petft160_medium.jpg2017-02-15 22:45 168K 
[IMG]52388998-boy-in-suit-with-phoneft160_medium.jpg2017-02-15 22:44 116K 
[IMG]52389001-numbers-make-the-worldft160_medium.jpg2017-02-15 22:47 156K 
[IMG]52389006-supporterft160_medium.jpg2017-02-15 22:49 176K 
[IMG]52389009-the-holy-bible-open-up-in-the-centreft160_medium.jpg2017-02-15 22:45 177K 
[IMG]52389010-small-dog-being-examined-at-the-veterinary-doctorft160_medium.jpg2017-02-15 22:48 151K 
[IMG]52389017-beautiful-woman-with-perfect-body-in-white-modeling-dressft160_medium.jpg2017-02-15 22:43 137K 
[IMG]52389019-boy-touching-finger-to-his-foreheadft160_medium.jpg2017-02-15 22:45 123K 
[IMG]52389024-two-rhinosft160_medium.jpg2017-02-15 22:48 173K 
[IMG]52389032-little-dog-at-the-veterinaryft160_medium.jpg2017-02-15 22:46 175K 
[IMG]52389036-boy-showing-thumbs-upft160_medium.jpg2017-02-15 22:49 121K 
[IMG]52389038-spice-labelsft160_medium.jpg2017-02-15 22:47 192K 
[IMG]52389040-animal-doctor-closeup-with-petsft160_medium.jpg2017-02-15 22:49 169K 
[IMG]52389041-basket-of-herbsft160_medium.jpg2017-02-15 22:44 201K 
[IMG]52389044-slovakian-fanft160_medium.jpg2017-02-15 22:48 171K 
[IMG]52389045-caffeft160_medium.jpg2017-02-15 22:47 244K 
[IMG]52389057-basket-of-herbsft160_medium.jpg2017-02-15 22:45 193K 
[IMG]52389059-vector-business-brochure-flyerft160_medium.jpg2017-02-15 22:46 155K 
[IMG]52389061-classical-musicianft160_medium.jpg2017-02-15 22:48 161K 
[IMG]52389067-slovakian-fanft160_medium.jpg2017-02-15 22:46 157K 
[IMG]52389068-framlingham-castle-with-grass-frontft160_medium.jpg2017-02-15 22:44 170K 
[IMG]52389069-abstract-animation-of-dnaft160_medium.jpg2017-02-15 22:46 124K 
[IMG]52389072-foot-massage-ft160_medium.jpg2017-02-15 22:44 131K 
[IMG]52389076ft160_medium.jpg2017-02-15 22:48 147K 
[IMG]52389083-slovakian-fanft160_medium.jpg2017-02-15 22:45 155K 
[IMG]52389084-castle-with-front-wallft160_medium.jpg2017-02-15 22:48 158K 
[IMG]52389092-ladybug-macroft160_medium.jpg2017-02-15 22:43 144K 
[IMG]52389097-eco-and-bio-labels-collectionft160_medium.jpg2017-02-15 22:45 186K 
[IMG]52389110-rotwein-glas-mit-wassertropfenft160_medium.jpg2017-02-15 22:47 130K 
[IMG]52389111-leeres-weinglas-silhouette-auf-schwarzft160_medium.jpg2017-02-15 22:49 100K 
[IMG]52389114-rotwein-und-weinflaschen-silhouette-auf-schwarzft160_medium.jpg2017-02-15 22:48 108K 
[IMG]52389116-slovakian-fanft160_medium.jpg2017-02-15 22:48 149K 
[IMG]52389117-rot-wein-glas-mit-blasen-auf-schwarzem-hintergrundft160_medium.jpg2017-02-15 22:44 119K 
[IMG]52389121-rotwein-glas-silhouette-mit-luftblasenft160_medium.jpg2017-02-15 22:46 115K 
[IMG]52389123-wein-glas-silhouette-auf-schwarzem-hintergrundft160_medium.jpg2017-02-15 22:44 103K 
[IMG]52389125-rot-wein-glas-mit-blasen-und-flaschenhals-mit-tropfenft160_medium.jpg2017-02-15 22:43 126K 
[IMG]52389127-wine-bottle-with-dropft160_medium.jpg2017-02-15 22:45 102K 
[IMG]52389129-red-wine-glas-silhouette-with-bottleft160_medium.jpg2017-02-15 22:47 99K 
[IMG]52389139-wein-glas-mit-wassertropfenft160_medium.jpg2017-02-15 22:48 128K 
[IMG]52389148-rakete-r1ft160_medium.jpg2017-02-15 22:48 122K 
[IMG]52389151-supporter-slovaqueft160_medium.jpg2017-02-15 22:43 153K 
[IMG]52389154-alcoholic-cocktail-on-a-vintage-wooden-tableft160_medium.jpg2017-02-15 22:43 141K 
[IMG]52389163-buddha-white-stone-head-ft160_medium.jpg2017-02-15 22:45 162K 
[IMG]52389164-coffee-with-coffee-beansft160_medium.jpg2017-02-15 22:45 241K 
[IMG]52389169-sick-girl-drinking-from-a-cupft160_medium.jpg2017-02-15 22:49 137K 
[IMG]52389173-numbers-make-the-worldft160_medium.jpg2017-02-15 22:43 152K 
[IMG]52389174-dinner-on-the-restaurant-menu-chalkboard-ft160_medium.jpg2017-02-15 22:43 150K 
[IMG]52389183-slovakian-fanft160_medium.jpg2017-02-15 22:49 154K 
[IMG]52389189-sick-boy-in-white-bedft160_medium.jpg2017-02-15 22:49 132K 
[IMG]52389197-maisons-allemandes-a-augsburg-en-baviereft160_medium.jpg2017-02-15 22:46 198K 
[IMG]52389204-supporterft160_medium.jpg2017-02-15 22:48 165K 
[IMG]52389214-supporter-slovaqueft160_medium.jpg2017-02-15 22:48 151K 
[IMG]52389217-set-of-labels-and-ribbons-retro-web-design-elements-ft160_medium.jpg2017-02-15 22:48 191K 
[IMG]52389219-two-lions-under-a-treeft160_medium.jpg2017-02-15 22:43 193K 
[IMG]52389231-two-female-lionsft160_medium.jpg2017-02-15 22:43 177K 
[IMG]52389235-supporterft160_medium.jpg2017-02-15 22:46 155K 
[IMG]52389239-abstract-animation-of-dnaft160_medium.jpg2017-02-15 22:43 163K 
[IMG]52389246-fashion-model-with-hairstyle-and-red-flowers-in-her-hair-ft160_medium.jpg2017-02-15 22:47 169K 
[IMG]52389249-sick-boy-in-white-bedft160_medium.jpg2017-02-15 22:44 138K 
[IMG]52389252-business-concept-with-text-fieldsft160_medium.jpg2017-02-15 22:48 194K 
[IMG]52389258-maisons-allemandes-a-augsburg-en-baviereft160_medium.jpg2017-02-15 22:43 197K 
[IMG]52389259-slovakian-fanft160_medium.jpg2017-02-15 22:45 161K 
[IMG]52389271-icons-sea-and-marine-life-in-blue-eps-10ft160_medium.jpg2017-02-15 22:47 188K 
[IMG]52389273-man-hand-turning-on-his-carft160_medium.jpg2017-02-15 22:49 133K 
[IMG]52389274-icons-sea-and-marine-life-eps-10ft160_medium.jpg2017-02-15 22:45 177K 
[IMG]52389275-inside-car-viewft160_medium.jpg2017-02-15 22:49 153K 
[IMG]52389285-supporterft160_medium.jpg2017-02-15 22:49 160K 
[IMG]52389293-4th-july-american-independence-day-vector-illustrationft160_medium.jpg2017-02-15 22:46 135K 
[IMG]52389303-le-palais-belle-ile-en-merft160_medium.jpg2017-02-15 22:45 159K 
[IMG]52389304-phares-a-l-entree-du-portft160_medium.jpg2017-02-15 22:43 162K 
[IMG]52389306-hand-writing-percent-symbol-on-white-paper-ft160_medium.jpg2017-02-15 22:44 130K 
[IMG]52389329-slovakian-fanft160_medium.jpg2017-02-15 22:47 164K 
[IMG]52389338-slovakian-fanft160_medium.jpg2017-02-15 22:45 150K 
[IMG]52389341-eglise-de-courzieu-2ft160_medium.jpg2017-02-15 22:44 161K 
[IMG]52389348-supporter-slovaqueft160_medium.jpg2017-02-15 22:48 155K 
[IMG]52389356-supporter-slovaqueft160_medium.jpg2017-02-15 22:47 163K 
[IMG]52389361-winning-tick-tack-toe-game-ft160_medium.jpg2017-02-15 22:46 152K 
[IMG]52389364-supporter-slovaqueft160_medium.jpg2017-02-15 22:46 144K 
[IMG]52389379-slovakian-fanft160_medium.jpg2017-02-15 22:43 145K 
[IMG]52389383-detail-of-structured-desert-sand-duneft160_medium.jpg2017-02-15 22:45 170K 
[IMG]52389384-supporter-slovaqueft160_medium.jpg2017-02-15 22:45 153K 
[IMG]52389390-loopable-odometer-animation-ft160_medium.jpg2017-02-15 22:48 136K 
[IMG]52389391-supporter-slovaqueft160_medium.jpg2017-02-15 22:45 142K 
[IMG]52389392-ribbons-about-babiesft160_medium.jpg2017-02-15 22:49 212K 
[IMG]52389405-binary-codes-creates-digital-fetus-ft160_medium.jpg2017-02-15 22:48 139K 
[IMG]52389406ft160_medium.jpg2017-02-15 22:47 121K 
[IMG]52389416ft160_medium.jpg2017-02-15 22:45 163K 
[IMG]52389423-turtleft160_medium.jpg2017-02-15 22:44 144K 
[IMG]52389428-fresh-coke-background-with-iceft160_medium.jpg2017-02-15 22:44 140K 
[IMG]52389429-little-boyft160_medium.jpg2017-02-15 22:44 143K 
[IMG]52389433-cold-feet-concept-ft160_medium.jpg2017-02-15 22:46 154K 
[IMG]52389434-eglise-de-courzieu-3ft160_medium.jpg2017-02-15 22:48 182K 
[IMG]52389436-wooden-boards-as-backgroundft160_medium.jpg2017-02-15 22:48 168K 
[IMG]52389438-kirschbaumbluetenft160_medium.jpg2017-02-15 22:43 172K 
[IMG]52389442-cold-feet-concept-ft160_medium.jpg2017-02-15 22:43 136K 
[IMG]52389459-cold-feet-concept-ft160_medium.jpg2017-02-15 22:46 137K 
[IMG]52389466-rosen-blumenstrauss-ft160_medium.jpg2017-02-15 22:46 157K 
[IMG]52389479-air-conditioning-system-of-the-buildingft160_medium.jpg2017-02-15 22:48 196K 
[IMG]52389488-binary-codes-creates-digital-fetus-ft160_medium.jpg2017-02-15 22:43 118K 
[IMG]52389504-animated-origami-cranes-ft160_medium.jpg2017-02-15 22:49 113K 
[IMG]52389510-aloe-vera-leavesft160_medium.jpg2017-02-15 22:43 151K 
[IMG]52389516-mur-bleu-vintage-coloreft160_medium.jpg2017-02-15 22:43 251K 
[IMG]52389521-dockside-craneft160_medium.jpg2017-02-15 22:46 242K 
[IMG]52389542-entree-d-une-eglise-grecque-symi-greceft160_medium.jpg2017-02-15 22:46 192K 
[IMG]52389550-entree-d-un-eglise-grecque-symi-greceft160_medium.jpg2017-02-15 22:43 172K 
[IMG]52389557-businessman-holding-playing-card-behind-his-back-ft160_medium.jpg2017-02-15 22:44 128K 
[IMG]52389563-sakura-cherry-blossom-in-springft160_medium.jpg2017-02-15 22:46 211K 
[IMG]52389573-working-with-computer-mouse-ft160_medium.jpg2017-02-15 22:43 138K 
[IMG]52389575-narrow-streets-of-old-city-ft160_medium.jpg2017-02-15 22:47 159K 
[IMG]52389596-bottle-of-pills-isolated-on-white-backgroundft160_medium.jpg2017-02-15 22:43 118K 
[IMG]52389597-vector-cartoon-buggyft160_medium.jpg2017-02-15 22:47 176K 
[IMG]52389606-jet-engine-detailft160_medium.jpg2017-02-15 22:47 181K 
[IMG]52389608-jet-engine-detailft160_medium.jpg2017-02-15 22:48 203K 
[IMG]52389624-old-city-of-jerusalemft160_medium.jpg2017-02-15 22:44 164K 
[IMG]52389625-drawing-new-home-ft160_medium.jpg2017-02-15 22:46 133K 
[IMG]52389632-green-tree-in-a-field-on-blue-skyft160_medium.jpg2017-02-15 22:47 169K 
[IMG]52389641-power-lft160_medium.jpg2017-02-15 22:47 132K 
[IMG]52389645-power-k-3dft160_medium.jpg2017-02-15 22:49 148K 
[IMG]52389653-drawing-new-home-ft160_medium.jpg2017-02-15 22:43 131K 
[IMG]52389671-white-house-washington-dc-viewft160_medium.jpg2017-02-15 22:46 154K 
[IMG]52389674-white-house-washington-dc-viewft160_medium.jpg2017-02-15 22:46 158K 
[IMG]52389678-green-tree-in-a-field-on-blue-skyft160_medium.jpg2017-02-15 22:46 153K 
[IMG]52389680-alcoholic-cocktail-on-a-vintage-wooden-tableft160_medium.jpg2017-02-15 22:46 134K 
[IMG]52389681-red-wine-set-on-a-vintage-wooden-tableft160_medium.jpg2017-02-15 22:48 157K 
[IMG]52389684-social-network-concept-unlike-on-computer-keyboard-backgroundft160_medium.jpg2017-02-15 22:45 197K 
[IMG]52389693-white-house-washington-dc-viewft160_medium.jpg2017-02-15 22:49 183K 
[IMG]52389696-drawing-a-car-ft160_medium.jpg2017-02-15 22:46 122K 
[IMG]52389700-airport-sign-ft160_medium.jpg2017-02-15 22:43 144K 
[IMG]52389702-geld-muenzen-auf-schachbrettft160_medium.jpg2017-02-15 22:45 183K 
[IMG]52389712-airport-sign-ft160_medium.jpg2017-02-15 22:46 172K 
[IMG]52389715-frau-nackt-wellness-orchideeft160_medium.jpg2017-02-15 22:46 151K 
[IMG]52389716-green-tree-in-a-field-on-blue-skyft160_medium.jpg2017-02-15 22:45 178K 
[IMG]52389717-drawing-a-car-ft160_medium.jpg2017-02-15 22:43 134K 
[IMG]52389728-vermillion-lakes-in-banffft160_medium.jpg2017-02-15 22:44 159K 
[IMG]52389732-the-coasts-of-portugalft160_medium.jpg2017-02-15 22:47 141K 
[IMG]52389741-red-and-grey-clocksft160_medium.jpg2017-02-15 22:49 164K 
[IMG]52389745-moon-and-roofsft160_medium.jpg2017-02-15 22:47 137K 
[IMG]52389760-hot-food-sign-ft160_medium.jpg2017-02-15 22:47 158K 
[IMG]52389762-binary-codes-creates-digital-fetus-ft160_medium.jpg2017-02-15 22:44 155K 
[IMG]52389780-animated-displaced-textures-3-color-variations-ft160_medium.jpg2017-02-15 22:44 186K 
[IMG]52389784-hands-with-moneyft160_medium.jpg2017-02-15 22:46 143K 
[IMG]52389786-highway-light-trailsft160_medium.jpg2017-02-15 22:45 195K 
[IMG]52389795-reaching-for-the-clouds-abstract-business-concept-illustrationft160_medium.jpg2017-02-15 22:43 119K 
[IMG]52389800-camogli-liguriaft160_medium.jpg2017-02-15 22:46 192K 
[IMG]52389807-camogli-liguriaft160_medium.jpg2017-02-15 22:48 215K 
[IMG]52389809-bridge-nightft160_medium.jpg2017-02-15 22:43 210K 
[IMG]52389812-camogli-liguriaft160_medium.jpg2017-02-15 22:46 227K 
[IMG]52389819-camogli-liguriaft160_medium.jpg2017-02-15 22:43 225K 
[IMG]52389832-shanghai-nightft160_medium.jpg2017-02-15 22:46 199K 
[IMG]52389835-muesli-bars-and-almonds-diet-conceptft160_medium.jpg2017-02-15 22:44 221K 
[IMG]52389837-sommerwieseft160_medium.jpg2017-02-15 22:47 196K 
[IMG]52389839-chocolate-cake-with-almondsft160_medium.jpg2017-02-15 22:43 185K 
[IMG]52389840-almonds-and-chocolate-cakeft160_medium.jpg2017-02-15 22:48 192K 
[IMG]52389843-neon-diner-sign-ft160_medium.jpg2017-02-15 22:48 153K 
[IMG]52389850-light-trailsft160_medium.jpg2017-02-15 22:45 178K 
[IMG]52389854-pierres-noires-zen-dans-le-sableft160_medium.jpg2017-02-15 22:48 148K 
[IMG]52389861-4-different-stage-lights-animation-ft160_medium.jpg2017-02-15 22:48 129K 
[IMG]52389865-aloe-vera-leavesft160_medium.jpg2017-02-15 22:45 170K 
[IMG]52389867-daffodilft160_medium.jpg2017-02-15 22:43 162K 
[IMG]52389868-construction-item-setft160_medium.jpg2017-02-15 22:46 173K 
[IMG]52389874-the-coasts-of-portugalft160_medium.jpg2017-02-15 22:48 130K 
[IMG]52389878-industrial-zoneft160_medium.jpg2017-02-15 22:46 180K 
[IMG]52389879-false-creek-boats-vancouver-cityscapeft160_medium.jpg2017-02-15 22:49 159K 
[IMG]52389889-muesli-barsft160_medium.jpg2017-02-15 22:43 215K 
[IMG]52389892-muesli-barsft160_medium.jpg2017-02-15 22:45 205K 
[IMG]52389896-sausageft160_medium.jpg2017-02-15 22:45 194K 
[IMG]52389902-travers-de-porcft160_medium.jpg2017-02-15 22:43 145K 
[IMG]52389904-smoked-sausageft160_medium.jpg2017-02-15 22:47 194K 
[IMG]52389908-metalic-water-tapft160_medium.jpg2017-02-15 22:47 141K 
[IMG]52389909-mit-geld-spielen-hand-spielt-zugft160_medium.jpg2017-02-15 22:48 209K 
[IMG]52389911-happy-mothers-day-card-with-cartoon-girlft160_medium.jpg2017-02-15 22:46 180K 
[IMG]52389916-pierres-de-massageft160_medium.jpg2017-02-15 22:48 147K 
[IMG]52389931-mothers-day-card-with-daisiesft160_medium.jpg2017-02-15 22:49 177K 
[IMG]52389943-omelet-in-frying-pan-with-bread-and-eggft160_medium.jpg2017-02-15 22:48 169K 
[IMG]52389944-mothers-day-greeting-card-with-cartoon-girlft160_medium.jpg2017-02-15 22:46 160K 
[IMG]52389975-young-mother-hugging-babyft160_medium.jpg2017-02-15 22:47 148K 
[IMG]52389976-young-mother-hugging-babyft160_medium.jpg2017-02-15 22:43 157K 
[IMG]52389978-fashion-model-with-hairstyle-and-pink-flowers-in-her-hair-ft160_medium.jpg2017-02-15 22:46 160K 
[IMG]52389995-schueler-junge-bei-schulaufgabe-ueberfordertft160_medium.jpg2017-02-15 22:45 192K 
[IMG]52389996ft160_medium.jpg2017-02-15 22:46 183K 
[IMG]52389998-metal-valvesft160_medium.jpg2017-02-15 22:44 176K 
[IMG]52390002-cargo-van-carft160_medium.jpg2017-02-15 22:47 138K 
[IMG]52390009-alte-marode-hauswandft160_medium.jpg2017-02-15 22:43 160K 
[IMG]52390023-wood-textureft160_medium.jpg2017-02-15 22:44 192K 
[IMG]52390032-cyclotourisme-tandemistes-dans-la-campagneft160_medium.jpg2017-02-15 22:45 178K 
[IMG]52390035-gruenes-ostereift160_medium.jpg2017-02-15 22:45 130K 
[IMG]52390049-tourteauft160_medium.jpg2017-02-15 22:44 172K 
[IMG]52390053-the-coasts-of-portugalft160_medium.jpg2017-02-15 22:44 160K 
[IMG]52390056-green-bow-with-hearts-and-ribbonft160_medium.jpg2017-02-15 22:45 160K 
[IMG]52390060-pentatomidae-macro-bug-beetleft160_medium.jpg2017-02-15 22:48 134K 
[IMG]52390064-beautiful-girl-face-perfect-skinft160_medium.jpg2017-02-15 22:49 97K 
[IMG]52390066-dynamic-engine-animation-ft160_medium.jpg2017-02-15 22:48 164K 
[IMG]52390069-trauer-engel-traenendes-herzft160_medium.jpg2017-02-15 22:45 195K 
[IMG]52390076-salmon-with-spicesft160_medium.jpg2017-02-15 22:47 134K 
[IMG]52390084-aloe-vera-leavesft160_medium.jpg2017-02-15 22:45 162K 
[IMG]52390091-social-media-concept-add-as-friend-on-digital-backgroundft160_medium.jpg2017-02-15 22:47 183K 
[IMG]52390096-beautiful-blonde-curls-and-pink-rosesft160_medium.jpg2017-02-15 22:47 162K 
[IMG]52390106-lila-ostereift160_medium.jpg2017-02-15 22:44 131K 
[IMG]52390110-aloe-vera-leavesft160_medium.jpg2017-02-15 22:45 156K 
[IMG]52390127-high-voltage-poleft160_medium.jpg2017-02-15 22:47 177K 
[IMG]52390140-beautiful-brunette-with-curly-hairft160_medium.jpg2017-02-15 22:46 161K 
[IMG]52390152-aloe-vera-leavesft160_medium.jpg2017-02-15 22:47 181K 
[IMG]52390154-trauer-engel-traenendes-herz-schwarz-weissft160_medium.jpg2017-02-15 22:45 166K 
[IMG]52390164-raumerfrischungft160_medium.jpg2017-02-15 22:44 128K 
[IMG]52390166-aloe-vera-leavesft160_medium.jpg2017-02-15 22:47 171K 
[IMG]52390182-engel-in-trauerft160_medium.jpg2017-02-15 22:47 158K 
[IMG]52390192-the-coasts-of-portugalft160_medium.jpg2017-02-15 22:47 119K 
[IMG]52390196-frau-im-kaufrausch-mann-ist-genervtft160_medium.jpg2017-02-15 22:46 154K 
[IMG]52390205-trauer-engel-traenendes-herzft160_medium.jpg2017-02-15 22:45 171K 
[IMG]52390209-pralinen-cupcakesft160_medium.jpg2017-02-15 22:45 136K 
[IMG]52390216-salatft160_medium.jpg2017-02-15 22:48 184K 
[IMG]52390224-diamond-with-alpha-matte-ft160_medium.jpg2017-02-15 22:46 135K 
[IMG]52390226-red-heart-in-snowft160_medium.jpg2017-02-15 22:43 154K 
[IMG]52390229-tourteauft160_medium.jpg2017-02-15 22:44 178K 
[IMG]52390231-trauer-engel-traenendes-herzft160_medium.jpg2017-02-15 22:48 178K 
[IMG]52390249-frau-mit-leerer-tafel-fuer-werbung-und-text-und-geldscheinenft160_medium.jpg2017-02-15 22:47 158K 
[IMG]52390262-kebapsft160_medium.jpg2017-02-15 22:44 161K 
[IMG]52390265-cookingft160_medium.jpg2017-02-15 22:46 206K 
[IMG]52390267-dinnerft160_medium.jpg2017-02-15 22:46 210K 
[IMG]52390272-dinnerft160_medium.jpg2017-02-15 22:47 202K 
[IMG]52390274-dinnerft160_medium.jpg2017-02-15 22:47 227K 
[IMG]52390282-fire-animation-lower-thirdft160_medium.jpg2017-02-15 22:43 116K 
[IMG]52390299-weinrebe-im-mai-3ft160_medium.jpg2017-02-15 22:48 153K 
[IMG]52390306-digital-blue-equalizer-backgroundft160_medium.jpg2017-02-15 22:44 170K 
[IMG]52390309-rotes-herz-aus-holz-mit-schleifeft160_medium.jpg2017-02-15 22:47 184K 
[IMG]52390317-body-mass-index-retro-poster-ft160_medium.jpg2017-02-15 22:45 213K 
[IMG]52390320-rotes-herz-aus-holz-mit-schleifeft160_medium.jpg2017-02-15 22:48 180K 
[IMG]52390321-hands-with-moneyft160_medium.jpg2017-02-15 22:48 197K 
[IMG]52390322-body-mass-index-retro-poster-ft160_medium.jpg2017-02-15 22:47 215K 
[IMG]52390328-wuerfel-huepfen-blauft160_medium.jpg2017-02-15 22:45 233K 
[IMG]52390330-wuerfel-huepfen-braunft160_medium.jpg2017-02-15 22:44 236K 
[IMG]52390332-social-network-concept-unlike-and-unlike-on-computer-keyboard-bft160_medium.jpg2017-02-15 22:48 151K 
[IMG]52390335-environmental-contaminationft160_medium.jpg2017-02-15 22:44 217K 
[IMG]52390353-moon-and-earth-elements-of-this-image-furnished-by-nasaft160_medium.jpg2017-02-15 22:48 136K 
[IMG]52390354-roma-santa-agnese-fuori-le-mura-mausoleo-santa-costanzaft160_medium.jpg2017-02-15 22:45 208K 
[IMG]52390360-estateft160_medium.jpg2017-02-15 22:48 198K 
[IMG]52390363-gift-box-template-ft160_medium.jpg2017-02-15 22:43 179K 
[IMG]52390373-beautiful-space-backgroundft160_medium.jpg2017-02-15 22:46 115K 
[IMG]52390376-haus-euro-kosten-ft160_medium.jpg2017-02-15 22:46 117K 
[IMG]52390377-traditional-american-home-with-garageft160_medium.jpg2017-02-15 22:49 173K 
[IMG]52390380-cahier-de-notes-ligneft160_medium.jpg2017-02-15 22:44 158K 
[IMG]52390390-the-coasts-of-portugalft160_medium.jpg2017-02-15 22:47 136K 
[IMG]52390396-beautiful-vintage-invitation-with-rose-petalsft160_medium.jpg2017-02-15 22:44 186K 
[IMG]52390411-wuerfel-huepfen-gruenft160_medium.jpg2017-02-15 22:44 232K 
[IMG]52390416-screen-panel-of-wireframe-racing-car-ft160_medium.jpg2017-02-15 22:46 144K 
[IMG]52390424-galactic-zoom-scene-ft160_medium.jpg2017-02-15 22:49 138K 
[IMG]52390426-two-car-wooden-garageft160_medium.jpg2017-02-15 22:47 185K 
[IMG]52390429-wedding-favorsft160_medium.jpg2017-02-15 22:47 135K 
[IMG]52390432-detail-of-various-wooden-carved-masksft160_medium.jpg2017-02-15 22:47 222K 
[IMG]52390441-weinbergschnecke-auf-weinrebe-1ft160_medium.jpg2017-02-15 22:45 152K 
[IMG]52390450-wedding-favorsft160_medium.jpg2017-02-15 22:47 148K 
[IMG]52390451-close-up-of-color-pencils-on-whiteft160_medium.jpg2017-02-15 22:47 183K 
[IMG]52390453-chicago-by-duskft160_medium.jpg2017-02-15 22:49 154K 
[IMG]52390456-vintage-grunge-backgroundft160_medium.jpg2017-02-15 22:43 178K 
[IMG]52390460-world-under-glass-perfect-for-text-spaces-ft160_medium.jpg2017-02-15 22:46 104K 
[IMG]52390473-wedding-favorsft160_medium.jpg2017-02-15 22:45 146K 
[IMG]52390490-sir-turtleft160_medium.jpg2017-02-15 22:47 148K 
[IMG]52390496-world-under-glass-perfect-for-text-spaces-ft160_medium.jpg2017-02-15 22:47 121K 
[IMG]52390497-close-up-of-color-pencils-on-whiteft160_medium.jpg2017-02-15 22:43 169K 
[IMG]52390504-wuerfel-huepfen-rotft160_medium.jpg2017-02-15 22:45 242K 
[IMG]52390506-wuerfel-huepfen-pinkft160_medium.jpg2017-02-15 22:43 243K 
[IMG]52390516-wand-mit-schwarzen-klinkersteinenft160_medium.jpg2017-02-15 22:44 166K 
[IMG]52390526-smile-young-beautiful-woman-holding-drink-waterft160_medium.jpg2017-02-15 22:44 162K 
[IMG]52390528-comic-cloud-speech-bubbles-ft160_medium.jpg2017-02-15 22:45 156K 
[IMG]52390530-paper-white-cloud-bubble-ft160_medium.jpg2017-02-15 22:46 120K 
[IMG]52390532-round-grey-icons-ft160_medium.jpg2017-02-15 22:49 143K 
[IMG]52390534-square-color-icons-ft160_medium.jpg2017-02-15 22:47 157K 
[IMG]52390535-wedding-ring-and-weddings-favorsft160_medium.jpg2017-02-15 22:44 128K 
[IMG]52390540-woman-with-retro-bicycleft160_medium.jpg2017-02-15 22:45 181K 
[IMG]52390558ft160_medium.jpg2017-02-15 22:45 137K 
[IMG]52390562-close-up-of-color-pencils-on-whiteft160_medium.jpg2017-02-15 22:42 141K 
[IMG]52390565-beautiful-space-backgroundft160_medium.jpg2017-02-15 22:47 140K 
[IMG]52390568-funny-sport-girl-with-racket-isolated-on-whiteft160_medium.jpg2017-02-15 22:43 147K 
[IMG]52390580-downtown-chicago-with-blue-skyft160_medium.jpg2017-02-15 22:46 138K 
[IMG]52390581-close-up-of-color-pencils-on-whiteft160_medium.jpg2017-02-15 22:44 197K 
[IMG]52390584-ginger-cookiesft160_medium.jpg2017-02-15 22:47 139K 
[IMG]52390600-pictos-vehiculesft160_medium.jpg2017-02-15 22:44 182K 
[IMG]52390601-eclipse-of-the-sun-elements-of-this-image-furnished-by-nasaft160_medium.jpg2017-02-15 22:45 116K 
[IMG]52390609-kuehlerfigurft160_medium.jpg2017-02-15 22:48 156K 
[IMG]52390613-chicago-downtown-by-duskft160_medium.jpg2017-02-15 22:46 153K 
[IMG]52390617-peonies-bouquetft160_medium.jpg2017-02-15 22:47 212K 
[IMG]52390626-kanzleift160_medium.jpg2017-02-15 22:43 156K 
[IMG]52390632-close-up-of-color-pencils-on-whiteft160_medium.jpg2017-02-15 22:46 157K 
[IMG]52390636-kette-mit-drei-schloessernft160_medium.jpg2017-02-15 22:43 137K 
[IMG]52390652-spring-bouquetft160_medium.jpg2017-02-15 22:47 203K 
[IMG]52390653-paper-clouds-over-blue-sky-vector-illustrationft160_medium.jpg2017-02-15 22:46 137K 
[IMG]52390654-newft160_medium.jpg2017-02-15 22:49 174K 
[IMG]52390666-fantasy-magic-world-pixie-and-moonft160_medium.jpg2017-02-15 22:43 215K 
[IMG]52390667-wiki-buzzwordft160_medium.jpg2017-02-15 22:45 131K 
[IMG]52390671-push-pin-pathft160_medium.jpg2017-02-15 22:48 123K 
[IMG]52390672-play-buzzwordft160_medium.jpg2017-02-15 22:46 129K 
[IMG]52390675-blackboard-chalkboard-texture-empty-blank-black-chalkboard-isft160_medium.jpg2017-02-15 22:48 115K 
[IMG]52390692-traditional-american-homeft160_medium.jpg2017-02-15 22:45 174K 
[IMG]52390693-success-concept-ft160_medium.jpg2017-02-15 22:47 130K 
[IMG]52390697-defensa-personal-guardia-real-1ft160_medium.jpg2017-02-15 22:45 158K 
[IMG]52390698-wuerfel-schweben-fond-blauft160_medium.jpg2017-02-15 22:47 214K 
[IMG]52390699-bunch-of-keys-and-heart-messages-about-love-on-the-white-backgft160_medium.jpg2017-02-15 22:49 130K 
[IMG]52390700-vintage-interior-and-lanternsft160_medium.jpg2017-02-15 22:48 188K 
[IMG]52390705-plan-buzzwordft160_medium.jpg2017-02-15 22:43 130K 
[IMG]52390706-on-off-switchft160_medium.jpg2017-02-15 22:47 125K 
[IMG]52390707-loss-buzzwordft160_medium.jpg2017-02-15 22:48 129K 
[IMG]52390713-packet-with-flag-of-estonia-ft160_medium.jpg2017-02-15 22:47 128K 
[IMG]52390714-film-stripft160_medium.jpg2017-02-15 22:45 144K 
[IMG]52390715-dumbbell-redft160_medium.jpg2017-02-15 22:49 139K 
[IMG]52390716-download-buttonft160_medium.jpg2017-02-15 22:46 150K 
[IMG]52390725-available-now-labelft160_medium.jpg2017-02-15 22:45 144K 
[IMG]52390736-head-of-delphic-sibyl-from-sistine-chapel-italy-1961-ft160_medium.jpg2017-02-15 22:45 232K 
[IMG]52390742-packet-with-flag-of-latvia-ft160_medium.jpg2017-02-15 22:48 133K 
[IMG]52390755-telephoneft160_medium.jpg2017-02-15 22:44 197K 
[IMG]52390756-happy-small-person-with-sign-of-euro-ft160_medium.jpg2017-02-15 22:46 135K 
[IMG]52390757-funny-moments-with-dadft160_medium.jpg2017-02-15 22:43 188K 
[IMG]52390759-cute-hedgehog-drinks-through-a-strawft160_medium.jpg2017-02-15 22:46 173K 
[IMG]52390766-happy-small-person-with-query-mark-ft160_medium.jpg2017-02-15 22:45 135K 
[IMG]52390767-animated-clock-white-ft160_medium.jpg2017-02-15 22:48 145K 
[IMG]52390778-two-car-wooden-garageft160_medium.jpg2017-02-15 22:49 175K 
[IMG]52390783-estonian-flag-made-of-puzzles-ft160_medium.jpg2017-02-15 22:47 156K 
[IMG]52390784-young-woman-with-boxing-gloves-white-background-ft160_medium.jpg2017-02-15 22:47 131K 
[IMG]52390799-two-happy-young-girl-friends-talking-or-whisperingft160_medium.jpg2017-02-15 22:43 169K 
[IMG]52390801-bowl-with-fresh-leaves-green-lettuce-isolated-on-white-backgrounft160_medium.jpg2017-02-15 22:44 147K 
[IMG]52390807-button-gray-eco-lampft160_medium.jpg2017-02-15 22:47 150K 
[IMG]52390809-two-car-wooden-garageft160_medium.jpg2017-02-15 22:46 162K 
[IMG]52390810-author-recaizade-mahmut-ekrem-turkey-1964-ft160_medium.jpg2017-02-15 22:45 208K 
[IMG]52390811-colorful-cars-around-3d-small-person-ft160_medium.jpg2017-02-15 22:47 157K 
[IMG]52390813-colorful-pencils-isolated-on-white-backgroundft160_medium.jpg2017-02-15 22:47 215K 
[IMG]52390814-button-green-dropft160_medium.jpg2017-02-15 22:44 151K 
[IMG]52390816-hand-gesture-one-to-fiveft160_medium.jpg2017-02-15 22:44 133K 
[IMG]52390821-red-color-of-rubber-ringft160_medium.jpg2017-02-15 22:43 175K 
[IMG]52390825-button-blue-windmillft160_medium.jpg2017-02-15 22:48 158K 
[IMG]52390827-young-elegance-flamenco-girl-vector-illustrationft160_medium.jpg2017-02-15 22:49 152K 
[IMG]52390830-yellow-folders-around-happy-3d-small-person-ft160_medium.jpg2017-02-15 22:48 142K 
[IMG]52390834-vector-bedouin-caravan-camels-against-over-pyramids-ft160_medium.jpg2017-02-15 22:45 130K 
[IMG]52390837-wild-coniferous-wood-in-morning-fog-with-bridge-ft160_medium.jpg2017-02-15 22:48 130K 
[IMG]52390844-agenda-ouvertft160_medium.jpg2017-02-15 22:46 141K 
[IMG]52390852-frau-nackt-wellness-blume-relaxft160_medium.jpg2017-02-15 22:43 149K 
[IMG]52390856-success-concept-ft160_medium.jpg2017-02-15 22:47 162K 
[IMG]52390864-three-juicy-tomatoes-with-green-leaves-lettuce-isolated-on-whitft160_medium.jpg2017-02-15 22:44 157K 
[IMG]52390867-strawberries-isolated-on-whiteft160_medium.jpg2017-02-15 22:48 171K 
[IMG]52390868-beautiful-strawberries-isolated-on-white-background-ft160_medium.jpg2017-02-15 22:46 159K 
[IMG]52390871-beautiful-strawberries-isolated-on-white-background-ft160_medium.jpg2017-02-15 22:43 152K 
[IMG]52390898-fontana-di-trevi-italy-romeft160_medium.jpg2017-02-15 22:46 185K 
[IMG]52390902-printempsft160_medium.jpg2017-02-15 22:43 144K 
[IMG]52390907-idea-concept-ft160_medium.jpg2017-02-15 22:47 132K 
[IMG]52390911-home-cinema-vector-illustration-ft160_medium.jpg2017-02-15 22:48 135K 
[IMG]52390920-travers-de-porcft160_medium.jpg2017-02-15 22:43 182K 
[IMG]52390924-simply-animated-discoballft160_medium.jpg2017-02-15 22:46 132K 
[IMG]52390935-retro-birthday-elementsft160_medium.jpg2017-02-15 22:48 198K 
[IMG]52390937-birthday-messageft160_medium.jpg2017-02-15 22:47 142K 
[IMG]52390961-query-mark-and-medical-suitcase-ft160_medium.jpg2017-02-15 22:43 143K 
[IMG]52390968-jobft160_medium.jpg2017-02-15 22:48 166K 
[IMG]52390979-mermaidft160_medium.jpg2017-02-15 22:45 137K 
[IMG]52390980-at-symbol-and-colorful-puzzles-ft160_medium.jpg2017-02-15 22:47 146K 
[IMG]52390984-mermaidft160_medium.jpg2017-02-15 22:47 143K 
[IMG]52390989-financial-support-concept-ft160_medium.jpg2017-02-15 22:46 152K 
[IMG]52391006-lock-and-cross-mark-ft160_medium.jpg2017-02-15 22:43 133K 
[IMG]52391013-profit-concept-ft160_medium.jpg2017-02-15 22:44 131K 
[IMG]52391016-port-cargo-crane-over-blue-sky-backgroundft160_medium.jpg2017-02-15 22:43 206K 
[IMG]52391017-port-cargo-crane-over-blue-sky-backgroundft160_medium.jpg2017-02-15 22:45 138K 
[IMG]52391025-at-symbol-and-magic-wand-ft160_medium.jpg2017-02-15 22:46 178K 
[IMG]52391028-shit-penguinft160_medium.jpg2017-02-15 22:47 136K 
[IMG]52391041-social-network-concept-silver-social-network-on-digital-backgroft160_medium.jpg2017-02-15 22:49 183K 
[IMG]52391042-coat-of-arms-with-flag-of-japan-ft160_medium.jpg2017-02-15 22:46 133K 
[IMG]52391045-abstract-banner-for-your-design-colorful-digital-illustration-ft160_medium.jpg2017-02-15 22:49 204K 
[IMG]52391056-leckeres-matjesbroetchenft160_medium.jpg2017-02-15 22:43 167K 
[IMG]52391061-classic-ferry-of-istanbul-at-the-seaport-istanbul-vapurlarift160_medium.jpg2017-02-15 22:46 162K 
[IMG]52391075-zwei-herzen-pinselstrichft160_medium.jpg2017-02-15 22:47 127K 
[IMG]52391077-beautiful-smiling-stewardess-on-a-background-skyft160_medium.jpg2017-02-15 22:47 161K 
[IMG]52391089ft160_medium.jpg2017-02-15 22:45 142K 
[IMG]52391097-concept-of-driver-soberft160_medium.jpg2017-02-15 22:48 125K 
[IMG]52391108-shit-penguinft160_medium.jpg2017-02-15 22:43 140K 
[IMG]52391111-business-abstract-background-vector-illustrationft160_medium.jpg2017-02-15 22:48 122K 
[IMG]52391113-oysters-on-whiteft160_medium.jpg2017-02-15 22:46 175K 
[IMG]52391125-oyster-on-whiteft160_medium.jpg2017-02-15 22:48 158K 
[IMG]52391142-black-spaghetti-with-seafoodft160_medium.jpg2017-02-15 22:44 200K 
[IMG]52391164-social-network-concept-golden-add-as-friend-on-digital-backgrouft160_medium.jpg2017-02-15 22:43 184K 
[IMG]52391169-logo-a-monter-soi-memeft160_medium.jpg2017-02-15 22:46 162K 
[IMG]52391172-beautiful-girl-relaxing-in-a-parkft160_medium.jpg2017-02-15 22:44 151K 
[IMG]52391178-beautiful-girl-relaxing-in-a-parkft160_medium.jpg2017-02-15 22:47 153K 
[IMG]52391182-abstract-sphere-chromeft160_medium.jpg2017-02-15 22:48 118K 
[IMG]52391205-www-with-mouse-isolatedft160_medium.jpg2017-02-15 22:45 125K 
[IMG]52391230-fajitasft160_medium.jpg2017-02-15 22:48 153K 
[IMG]52391240ft160_medium.jpg2017-02-15 22:47 143K 
[IMG]52391242ft160_medium.jpg2017-02-15 22:43 136K 
[IMG]52391255-mbr-2-wwii-soviet-army-flying-boatft160_medium.jpg2017-02-15 22:44 139K 
[IMG]52391259-fajitasft160_medium.jpg2017-02-15 22:48 159K 
[IMG]52391268-le-pont-de-la-vierge-noire-a-seysselft160_medium.jpg2017-02-15 22:44 160K 
[IMG]52391288-fajitasft160_medium.jpg2017-02-15 22:45 159K 
[IMG]52391292-social-network-concept-social-media-on-computer-keyboard-backgrft160_medium.jpg2017-02-15 22:43 161K 
[IMG]52391307-fienile-di-montagna-con-ruscelloft160_medium.jpg2017-02-15 22:43 176K 
[IMG]52391314-animation-of-a-tablet-ft160_medium.jpg2017-02-15 22:47 119K 
[IMG]52391336-discussionft160_medium.jpg2017-02-15 22:48 164K 
[IMG]52391360-action-planft160_medium.jpg2017-02-15 22:43 173K 
[IMG]52391381-puntellift160_medium.jpg2017-02-15 22:45 223K 
[IMG]52391389-happy-couple-in-the-parkft160_medium.jpg2017-02-15 22:48 148K 
[IMG]52391405-portrait-with-red-hairft160_medium.jpg2017-02-15 22:45 130K 
[IMG]52391417-girl-as-a-clownft160_medium.jpg2017-02-15 22:45 138K 
[IMG]52391426-strawberries-isolated-on-whiteft160_medium.jpg2017-02-15 22:46 140K 
[IMG]52391430-strawberries-isolated-on-whiteft160_medium.jpg2017-02-15 22:45 152K 
[IMG]52391432-strawberries-isolated-on-whiteft160_medium.jpg2017-02-15 22:48 159K 
[IMG]52391435-set-of-yoga-posturesft160_medium.jpg2017-02-15 22:48 156K 
[IMG]52391438-spring-labelsft160_medium.jpg2017-02-15 22:47 168K 

Apache/2.4.12 (Ubuntu) Server at pics.mein-artikel-design.de Port 443